Time,TemperatureF,DewpointF,PressureIn,WindDirection,WindDirectionDegrees,WindSpeedMPH,WindSpeedGustMPH,Humidity,HourlyPrecipIn,Conditions,Clouds,dailyrainin,SoftwareType,DateUTC
2013-06-10 00:00:00,64.2,53.8,29.93,ESE,112,0.0,0.0,69,0.00,CLR,,0.00,WeatherDisplay:10.37,2013-06-10 04:00:00,
2013-06-10 00:01:00,64.2,53.8,29.93,ESE,112,0.0,0.0,69,0.00,CLR,,0.00,WeatherDisplay:10.37,2013-06-10 04:01:00,
2013-06-10 00:06:00,64.4,54.0,29.93,SSE,158,1.2,0.0,69,0.00,CLR,,0.00,WeatherDisplay:10.37,2013-06-10 04:06:00,
2013-06-10 00:07:00,64.4,54.0,29.93,SW,225,1.2,0.0,69,0.00,CLR,,0.00,WeatherDisplay:10.37,2013-06-10 04:07:00,
2013-06-10 00:11:00,64.4,54.0,29.93,SSE,158,0.0,0.0,69,0.00,CLR,,0.00,WeatherDisplay:10.37,2013-06-10 04:11:00,
2013-06-10 00:12:00,64.2,53.8,29.93,SSE,158,0.0,0.0,69,0.00,CLR,,0.00,WeatherDisplay:10.37,2013-06-10 04:12:00,
2013-06-10 00:17:00,64.2,53.8,29.93,SSE,158,0.0,0.0,69,0.00,CLR,,0.00,WeatherDisplay:10.37,2013-06-10 04:17:00,
2013-06-10 00:22:00,63.7,52.9,29.93,SSE,158,0.0,0.0,68,0.00,CLR,,0.00,WeatherDisplay:10.37,2013-06-10 04:22:00,
2013-06-10 00:27:00,63.3,53.0,29.93,NNW,338,0.0,0.0,69,0.00,CLR,,0.00,WeatherDisplay:10.37,2013-06-10 04:27:00,
2013-06-10 00:28:00,63.3,53.0,29.93,NNW,338,0.0,0.0,69,0.00,CLR,,0.00,WeatherDisplay:10.37,2013-06-10 04:28:00,
2013-06-10 00:32:00,63.7,53.7,29.93,SSE,158,1.2,0.0,70,0.00,CLR,,0.00,WeatherDisplay:10.37,2013-06-10 04:32:00,
2013-06-10 00:33:00,63.7,53.7,29.93,South,180,0.0,0.0,70,0.00,CLR,,0.00,WeatherDisplay:10.37,2013-06-10 04:33:00,
2013-06-10 00:37:00,63.7,53.7,29.93,SSE,158,0.9,0.0,70,0.00,CLR,,0.00,WeatherDisplay:10.37,2013-06-10 04:37:00,
2013-06-10 00:38:00,63.7,53.7,29.93,SSE,158,0.9,0.0,70,0.00,CLR,,0.00,WeatherDisplay:10.37,2013-06-10 04:38:00,
2013-06-10 00:43:00,64.0,54.1,29.93,South,180,1.2,0.0,70,0.00,CLR,,0.00,WeatherDisplay:10.37,2013-06-10 04:43:00,
2013-06-10 00:48:00,64.0,54.1,29.93,ESE,112,1.2,0.0,70,0.00,CLR,,0.00,WeatherDisplay:10.37,2013-06-10 04:48:00,
2013-06-10 00:53:00,63.9,53.5,29.93,ESE,112,0.0,0.0,69,0.00,CLR,,0.00,WeatherDisplay:10.37,2013-06-10 04:53:00,
2013-06-10 00:54:00,64.0,53.7,29.93,SE,135,0.0,0.0,69,0.00,CLR,,0.00,WeatherDisplay:10.37,2013-06-10 04:54:00,
2013-06-10 00:58:00,63.9,53.5,29.93,SSE,158,0.0,0.0,69,0.00,CLR,,0.00,WeatherDisplay:10.37,2013-06-10 04:58:00,
2013-06-10 00:59:00,64.0,53.7,29.93,SSE,158,0.0,0.0,69,0.00,CLR,,0.00,WeatherDisplay:10.37,2013-06-10 04:59:00,
2013-06-10 01:03:00,63.9,53.5,29.90,SSE,158,0.0,0.0,69,0.00,CLR,,0.00,WeatherDisplay:10.37,2013-06-10 05:03:00,
2013-06-10 01:04:00,63.9,53.5,29.90,SSW,202,0.0,0.0,69,0.00,CLR,,0.00,WeatherDisplay:10.37,2013-06-10 05:04:00,
2013-06-10 01:08:00,64.0,53.7,29.90,NW,315,0.0,0.0,69,0.00,CLR,,0.00,WeatherDisplay:10.37,2013-06-10 05:08:00,
2013-06-10 01:09:00,64.0,53.7,29.90,NW,315,0.0,0.0,69,0.00,CLR,,0.00,WeatherDisplay:10.37,2013-06-10 05:09:00,
2013-06-10 01:13:00,64.4,54.0,29.90,SSW,202,0.0,0.0,69,0.00,CLR,,0.00,WeatherDisplay:10.37,2013-06-10 05:13:00,
2013-06-10 01:14:00,64.4,54.0,29.90,SE,135,0.0,0.0,69,0.00,CLR,,0.00,WeatherDisplay:10.37,2013-06-10 05:14:00,
2013-06-10 01:18:00,64.4,53.6,29.93,SSE,158,0.0,0.0,68,0.00,CLR,,0.00,WeatherDisplay:10.37,2013-06-10 05:18:00,
2013-06-10 01:19:00,64.4,53.6,29.93,SSE,158,0.0,0.0,68,0.00,CLR,,0.00,WeatherDisplay:10.37,2013-06-10 05:19:00,
2013-06-10 01:24:00,64.4,53.6,29.93,South,180,0.0,0.0,68,0.00,CLR,,0.00,WeatherDisplay:10.37,2013-06-10 05:24:00,
2013-06-10 01:25:00,64.4,53.6,29.93,SSE,158,0.0,0.0,68,0.00,CLR,,0.00,WeatherDisplay:10.37,2013-06-10 05:25:00,
2013-06-10 01:29:00,64.4,53.2,29.93,ESE,112,0.0,0.0,67,0.00,CLR,,0.00,WeatherDisplay:10.37,2013-06-10 05:29:00,
2013-06-10 01:30:00,64.4,53.2,29.93,ESE,112,0.0,0.0,67,0.00,CLR,,0.00,WeatherDisplay:10.37,2013-06-10 05:30:00,
2013-06-10 01:34:00,64.0,53.3,29.93,ESE,112,0.0,0.0,68,0.00,CLR,,0.00,WeatherDisplay:10.37,2013-06-10 05:34:00,
2013-06-10 01:35:00,63.9,53.1,29.93,ESE,112,0.0,0.0,68,0.00,CLR,,0.00,WeatherDisplay:10.37,2013-06-10 05:35:00,
2013-06-10 01:39:00,63.9,53.1,29.93,ESE,112,0.0,0.0,68,0.00,CLR,,0.00,WeatherDisplay:10.37,2013-06-10 05:39:00,
2013-06-10 01:40:00,63.9,53.1,29.93,ESE,112,0.0,0.0,68,0.00,CLR,,0.00,WeatherDisplay:10.37,2013-06-10 05:40:00,
2013-06-10 01:44:00,63.7,52.9,29.93,ESE,112,0.0,0.0,68,0.00,CLR,,0.00,WeatherDisplay:10.37,2013-06-10 05:44:00,
2013-06-10 01:45:00,63.7,52.9,29.93,ESE,112,0.0,0.0,68,0.00,CLR,,0.00,WeatherDisplay:10.37,2013-06-10 05:45:00,
2013-06-10 01:49:00,63.5,52.7,29.93,SE,135,0.0,0.0,68,0.00,CLR,,0.00,WeatherDisplay:10.37,2013-06-10 05:49:00,
2013-06-10 01:50:00,63.5,52.7,29.93,SE,135,0.0,0.0,68,0.00,CLR,,0.00,WeatherDisplay:10.37,2013-06-10 05:50:00,
2013-06-10 01:51:00,63.5,52.7,29.93,South,180,0.0,0.0,68,0.00,CLR,,0.00,WeatherDisplay:10.37,2013-06-10 05:51:00,
2013-06-10 01:55:00,63.9,53.5,29.93,SSE,158,0.0,0.0,69,0.00,CLR,,0.00,WeatherDisplay:10.37,2013-06-10 05:55:00,
2013-06-10 01:56:00,63.9,53.5,29.93,ESE,112,0.0,0.0,69,0.00,CLR,,0.00,WeatherDisplay:10.37,2013-06-10 05:56:00,
2013-06-10 02:00:00,64.0,53.3,29.93,SE,135,0.0,0.0,68,0.00,CLR,,0.00,WeatherDisplay:10.37,2013-06-10 06:00:00,
2013-06-10 02:01:00,64.0,53.3,29.93,SE,135,0.0,0.0,68,0.00,CLR,,0.00,WeatherDisplay:10.37,2013-06-10 06:01:00,
2013-06-10 02:05:00,64.0,53.3,29.93,ESE,112,1.2,0.0,68,0.00,CLR,,0.00,WeatherDisplay:10.37,2013-06-10 06:05:00,
2013-06-10 02:06:00,64.2,53.4,29.93,SSE,158,0.0,0.0,68,0.00,CLR,,0.00,WeatherDisplay:10.37,2013-06-10 06:06:00,
2013-06-10 02:07:00,64.2,53.4,29.93,South,180,2.3,0.0,68,0.00,CLR,,0.00,WeatherDisplay:10.37,2013-06-10 06:07:00,
2013-06-10 02:10:00,64.2,53.4,29.93,West,270,0.0,0.0,68,0.00,CLR,,0.00,WeatherDisplay:10.37,2013-06-10 06:10:00,
2013-06-10 02:11:00,64.2,53.4,29.93,SSW,202,1.2,0.0,68,0.00,CLR,,0.00,WeatherDisplay:10.37,2013-06-10 06:11:00,
2013-06-10 02:12:00,64.2,53.4,29.93,SSW,202,2.3,0.0,68,0.00,CLR,,0.00,WeatherDisplay:10.37,2013-06-10 06:12:00,
2013-06-10 02:13:00,64.2,53.4,29.93,SSE,158,2.3,2.3,68,0.00,CLR,,0.00,WeatherDisplay:10.37,2013-06-10 06:13:00,
2013-06-10 02:15:00,64.2,53.4,29.90,ESE,112,0.0,0.0,68,0.00,CLR,,0.00,WeatherDisplay:10.37,2013-06-10 06:15:00,
2013-06-10 02:16:00,64.4,53.6,29.90,SSE,158,0.0,0.0,68,0.00,CLR,,0.00,WeatherDisplay:10.37,2013-06-10 06:16:00,
2013-06-10 02:17:00,64.4,53.6,29.90,NW,315,2.4,0.0,68,0.00,CLR,,0.00,WeatherDisplay:10.37,2013-06-10 06:17:00,
2013-06-10 02:18:00,64.4,53.6,29.90,SSE,158,2.3,0.0,68,0.00,CLR,,0.00,WeatherDisplay:10.37,2013-06-10 06:18:00,
2013-06-10 02:20:00,64.4,53.6,29.90,SE,135,0.0,0.0,68,0.00,CLR,,0.00,WeatherDisplay:10.37,2013-06-10 06:20:00,
2013-06-10 02:22:00,64.2,53.4,29.90,SSW,202,0.0,0.0,68,0.00,CLR,,0.00,WeatherDisplay:10.37,2013-06-10 06:22:00,
2013-06-10 02:24:00,64.2,53.4,29.90,SSE,158,1.2,0.0,68,0.00,CLR,,0.00,WeatherDisplay:10.37,2013-06-10 06:24:00,
2013-06-10 02:27:00,64.2,53.4,29.90,SSE,158,1.2,0.0,68,0.00,CLR,,0.00,WeatherDisplay:10.37,2013-06-10 06:27:00,
2013-06-10 02:29:00,64.2,53.4,29.90,South,180,0.0,0.0,68,0.00,CLR,,0.00,WeatherDisplay:10.37,2013-06-10 06:29:00,
2013-06-10 02:32:00,64.2,53.4,29.90,SSE,158,0.0,0.0,68,0.00,CLR,,0.00,WeatherDisplay:10.37,2013-06-10 06:32:00,
2013-06-10 02:33:00,64.2,53.4,29.90,NNE,22,0.0,0.0,68,0.00,CLR,,0.00,WeatherDisplay:10.37,2013-06-10 06:33:00,
2013-06-10 02:34:00,64.2,53.4,29.90,South,180,0.0,0.0,68,0.00,CLR,,0.00,WeatherDisplay:10.37,2013-06-10 06:34:00,
2013-06-10 02:37:00,64.0,53.3,29.90,SSE,158,0.0,0.0,68,0.00,CLR,,0.00,WeatherDisplay:10.37,2013-06-10 06:37:00,
2013-06-10 02:38:00,64.0,53.3,29.90,SSE,158,0.0,0.0,68,0.00,CLR,,0.00,WeatherDisplay:10.37,2013-06-10 06:38:00,
2013-06-10 02:39:00,64.0,53.3,29.90,ESE,112,1.2,0.0,68,0.00,CLR,,0.00,WeatherDisplay:10.37,2013-06-10 06:39:00,
2013-06-10 02:42:00,63.9,53.5,29.90,SSW,202,1.2,0.0,69,0.00,CLR,,0.00,WeatherDisplay:10.37,2013-06-10 06:42:00,
2013-06-10 02:43:00,63.9,53.5,29.90,SE,135,1.2,0.0,69,0.00,CLR,,0.00,WeatherDisplay:10.37,2013-06-10 06:43:00,
2013-06-10 02:44:00,63.9,53.1,29.90,SSE,158,0.0,0.0,68,0.00,CLR,,0.00,WeatherDisplay:10.37,2013-06-10 06:44:00,
2013-06-10 02:47:00,63.9,53.1,29.90,SSE,158,0.0,0.0,68,0.00,CLR,,0.00,WeatherDisplay:10.37,2013-06-10 06:47:00,
2013-06-10 02:48:00,63.9,53.1,29.90,SSE,158,0.0,0.0,68,0.00,CLR,,0.00,WeatherDisplay:10.37,2013-06-10 06:48:00,
2013-06-10 02:49:00,63.9,53.1,29.90,SSE,158,0.0,0.0,68,0.00,CLR,,0.00,WeatherDisplay:10.37,2013-06-10 06:49:00,
2013-06-10 02:52:00,63.9,53.1,29.90,SSE,158,0.0,0.0,68,0.00,CLR,,0.00,WeatherDisplay:10.37,2013-06-10 06:52:00,
2013-06-10 02:53:00,63.9,53.1,29.90,SSW,202,0.0,0.0,68,0.00,CLR,,0.00,WeatherDisplay:10.37,2013-06-10 06:53:00,
2013-06-10 02:55:00,63.9,53.1,29.90,SSE,158,0.0,0.0,68,0.00,CLR,,0.00,WeatherDisplay:10.37,2013-06-10 06:55:00,
2013-06-10 02:57:00,63.9,53.1,29.90,ESE,112,0.0,0.0,68,0.00,CLR,,0.00,WeatherDisplay:10.37,2013-06-10 06:57:00,
2013-06-10 02:58:00,63.9,53.1,29.90,SSE,158,0.0,0.0,68,0.00,CLR,,0.00,WeatherDisplay:10.37,2013-06-10 06:58:00,
2013-06-10 02:59:00,63.9,53.1,29.90,East,90,0.0,0.0,68,0.00,CLR,,0.00,WeatherDisplay:10.37,2013-06-10 06:59:00,
2013-06-10 03:00:00,63.9,53.1,29.90,SSE,158,0.0,0.0,68,0.00,CLR,,0.00,WeatherDisplay:10.37,2013-06-10 07:00:00,
2013-06-10 03:02:00,63.9,53.1,29.90,ENE,68,0.0,0.0,68,0.00,CLR,,0.00,WeatherDisplay:10.37,2013-06-10 07:02:00,
2013-06-10 03:03:00,63.9,53.5,29.90,SSE,158,2.3,2.3,69,0.00,CLR,,0.00,WeatherDisplay:10.37,2013-06-10 07:03:00,
2013-06-10 03:04:00,63.9,53.1,29.90,SSE,158,2.3,0.0,68,0.00,CLR,,0.00,WeatherDisplay:10.37,2013-06-10 07:04:00,
2013-06-10 03:05:00,63.9,53.1,29.90,SE,135,1.2,0.0,68,0.00,CLR,,0.00,WeatherDisplay:10.37,2013-06-10 07:05:00,
2013-06-10 03:08:00,63.7,52.9,29.90,SSE,158,0.0,0.0,68,0.00,CLR,,0.00,WeatherDisplay:10.37,2013-06-10 07:08:00,
2013-06-10 03:09:00,63.7,52.9,29.90,SSE,158,0.0,0.0,68,0.00,CLR,,0.00,WeatherDisplay:10.37,2013-06-10 07:09:00,
2013-06-10 03:10:00,63.5,52.7,29.90,SSE,158,0.0,0.0,68,0.00,CLR,,0.00,WeatherDisplay:10.37,2013-06-10 07:10:00,
2013-06-10 03:13:00,63.5,52.7,29.90,South,180,0.0,0.0,68,0.00,CLR,,0.00,WeatherDisplay:10.37,2013-06-10 07:13:00,
2013-06-10 03:14:00,63.3,52.6,29.90,SSE,158,0.0,0.0,68,0.00,CLR,,0.00,WeatherDisplay:10.37,2013-06-10 07:14:00,
2013-06-10 03:16:00,63.3,53.0,29.90,SSE,158,0.0,0.0,69,0.00,CLR,,0.00,WeatherDisplay:10.37,2013-06-10 07:16:00,
2013-06-10 03:18:00,63.3,53.0,29.90,SSE,158,0.0,0.0,69,0.00,CLR,,0.00,WeatherDisplay:10.37,2013-06-10 07:18:00,
2013-06-10 03:19:00,63.3,53.0,29.90,SSE,158,0.0,0.0,69,0.00,CLR,,0.00,WeatherDisplay:10.37,2013-06-10 07:19:00,
2013-06-10 03:20:00,63.3,53.0,29.90,SSE,158,0.0,0.0,69,0.00,CLR,,0.00,WeatherDisplay:10.37,2013-06-10 07:20:00,
2013-06-10 03:21:00,63.3,53.0,29.90,SSE,158,0.0,0.0,69,0.00,CLR,,0.00,WeatherDisplay:10.37,2013-06-10 07:21:00,
2013-06-10 03:23:00,63.1,52.8,29.90,SSE,158,0.0,0.0,69,0.00,CLR,,0.00,WeatherDisplay:10.37,2013-06-10 07:23:00,
2013-06-10 03:24:00,63.1,52.8,29.90,SSE,158,0.0,0.0,69,0.00,CLR,,0.00,WeatherDisplay:10.37,2013-06-10 07:24:00,
2013-06-10 03:25:00,63.1,52.8,29.90,SSE,158,0.0,0.0,69,0.00,CLR,,0.00,WeatherDisplay:10.37,2013-06-10 07:25:00,
2013-06-10 03:26:00,63.1,52.8,29.90,SSE,158,0.0,0.0,69,0.00,CLR,,0.00,WeatherDisplay:10.37,2013-06-10 07:26:00,
2013-06-10 03:28:00,63.0,52.6,29.90,SSE,158,0.0,0.0,69,0.00,CLR,,0.00,WeatherDisplay:10.37,2013-06-10 07:28:00,
2013-06-10 03:29:00,63.0,52.6,29.90,SSE,158,0.0,0.0,69,0.00,CLR,,0.00,WeatherDisplay:10.37,2013-06-10 07:29:00,
2013-06-10 03:30:00,63.0,53.0,29.87,SSE,158,0.0,0.0,70,0.00,CLR,,0.00,WeatherDisplay:10.37,2013-06-10 07:30:00,
2013-06-10 03:31:00,63.0,53.0,29.87,SSE,158,0.0,0.0,70,0.00,CLR,,0.00,WeatherDisplay:10.37,2013-06-10 07:31:00,
2013-06-10 03:32:00,62.8,52.8,29.87,SSE,158,0.0,0.0,70,0.00,CLR,,0.00,WeatherDisplay:10.37,2013-06-10 07:32:00,
2013-06-10 03:33:00,62.8,52.8,29.87,SSE,158,0.0,0.0,70,0.00,CLR,,0.00,WeatherDisplay:10.37,2013-06-10 07:33:00,
2013-06-10 03:34:00,62.6,52.7,29.87,SSE,158,0.0,0.0,70,0.00,CLR,,0.00,WeatherDisplay:10.37,2013-06-10 07:34:00,
2013-06-10 03:36:00,62.6,52.7,29.87,SSE,158,0.0,0.0,70,0.00,CLR,,0.00,WeatherDisplay:10.37,2013-06-10 07:36:00,
2013-06-10 03:37:00,62.6,52.7,29.87,SSE,158,0.0,0.0,70,0.00,CLR,,0.00,WeatherDisplay:10.37,2013-06-10 07:37:00,
2013-06-10 03:38:00,62.8,52.8,29.87,SW,225,1.2,0.0,70,0.00,CLR,,0.00,WeatherDisplay:10.37,2013-06-10 07:38:00,
2013-06-10 03:39:00,62.8,53.2,29.87,SSE,158,1.2,1.2,71,0.00,CLR,,0.00,WeatherDisplay:10.37,2013-06-10 07:39:00,
2013-06-10 03:41:00,63.0,53.4,29.87,West,270,0.0,0.0,71,0.00,CLR,,0.00,WeatherDisplay:10.37,2013-06-10 07:41:00,
2013-06-10 03:42:00,63.1,53.6,29.87,SW,225,0.0,0.0,71,0.00,CLR,,0.00,WeatherDisplay:10.37,2013-06-10 07:42:00,
2013-06-10 03:44:00,63.1,53.2,29.87,SSE,158,0.0,0.0,70,0.00,CLR,,0.00,WeatherDisplay:10.37,2013-06-10 07:44:00,
2013-06-10 03:45:00,63.1,53.2,29.87,SSE,158,0.0,0.0,70,0.00,CLR,,0.00,WeatherDisplay:10.37,2013-06-10 07:45:00,
2013-06-10 03:46:00,63.1,53.2,29.87,NW,315,0.0,0.0,70,0.00,CLR,,0.00,WeatherDisplay:10.37,2013-06-10 07:46:00,
2013-06-10 03:47:00,63.1,53.6,29.87,SSW,202,0.0,0.0,71,0.00,CLR,,0.00,WeatherDisplay:10.37,2013-06-10 07:47:00,
2013-06-10 03:50:00,63.3,53.4,29.87,SSE,158,1.2,0.0,70,0.00,CLR,,0.00,WeatherDisplay:10.37,2013-06-10 07:50:00,
2013-06-10 03:51:00,63.5,53.5,29.87,WSW,248,0.0,0.0,70,0.00,CLR,,0.00,WeatherDisplay:10.37,2013-06-10 07:51:00,
2013-06-10 03:52:00,63.5,53.5,29.87,WSW,248,0.0,0.0,70,0.00,CLR,,0.00,WeatherDisplay:10.37,2013-06-10 07:52:00,
2013-06-10 03:55:00,63.5,53.1,29.87,South,180,1.2,0.0,69,0.00,CLR,,0.00,WeatherDisplay:10.37,2013-06-10 07:55:00,
2013-06-10 03:56:00,63.5,53.1,29.87,SSE,158,1.2,0.0,69,0.00,CLR,,0.00,WeatherDisplay:10.37,2013-06-10 07:56:00,
2013-06-10 03:57:00,63.5,53.1,29.87,SSE,158,0.0,0.0,69,0.00,CLR,,0.00,WeatherDisplay:10.37,2013-06-10 07:57:00,
2013-06-10 04:00:00,63.5,53.1,29.87,SSE,158,0.0,0.0,69,0.00,CLR,,0.00,WeatherDisplay:10.37,2013-06-10 08:00:00,
2013-06-10 04:01:00,63.5,53.1,29.87,SSE,158,0.0,0.0,69,0.00,CLR,,0.00,WeatherDisplay:10.37,2013-06-10 08:01:00,
2013-06-10 04:02:00,63.7,53.3,29.87,SSE,158,0.0,0.0,69,0.00,CLR,,0.00,WeatherDisplay:10.37,2013-06-10 08:02:00,
2013-06-10 04:05:00,63.7,53.3,29.87,SSE,158,0.0,0.0,69,0.00,CLR,,0.00,WeatherDisplay:10.37,2013-06-10 08:05:00,
2013-06-10 04:06:00,63.7,53.3,29.87,South,180,0.0,0.0,69,0.00,CLR,,0.00,WeatherDisplay:10.37,2013-06-10 08:06:00,
2013-06-10 04:07:00,63.7,53.3,29.87,South,180,0.0,0.0,69,0.00,CLR,,0.00,WeatherDisplay:10.37,2013-06-10 08:07:00,
2013-06-10 04:10:00,63.7,53.3,29.87,SSE,158,0.0,0.0,69,0.00,CLR,,0.00,WeatherDisplay:10.37,2013-06-10 08:10:00,
2013-06-10 04:11:00,63.7,52.9,29.87,South,180,0.0,0.0,68,0.00,CLR,,0.00,WeatherDisplay:10.37,2013-06-10 08:11:00,
2013-06-10 04:12:00,63.7,52.9,29.87,WNW,292,1.2,0.0,68,0.00,CLR,,0.00,WeatherDisplay:10.37,2013-06-10 08:12:00,
2013-06-10 04:13:00,63.7,52.9,29.87,SSW,202,1.2,0.0,68,0.00,CLR,,0.00,WeatherDisplay:10.37,2013-06-10 08:13:00,
2013-06-10 04:15:00,63.7,52.9,29.87,SSW,202,0.0,0.0,68,0.00,CLR,,0.00,WeatherDisplay:10.37,2013-06-10 08:15:00,
2013-06-10 04:17:00,63.7,52.9,29.87,SSE,158,1.2,0.0,68,0.00,CLR,,0.00,WeatherDisplay:10.37,2013-06-10 08:17:00,
2013-06-10 04:18:00,63.7,52.9,29.87,SSE,158,0.0,0.0,68,0.00,CLR,,0.00,WeatherDisplay:10.37,2013-06-10 08:18:00,
2013-06-10 04:20:00,63.7,52.5,29.87,NNW,338,0.0,0.0,67,0.00,CLR,,0.00,WeatherDisplay:10.37,2013-06-10 08:20:00,
2013-06-10 04:22:00,63.7,52.5,29.87,NNW,338,0.0,0.0,67,0.00,CLR,,0.00,WeatherDisplay:10.37,2013-06-10 08:22:00,
2013-06-10 04:23:00,63.7,52.5,29.87,SSW,202,0.0,0.0,67,0.00,CLR,,0.00,WeatherDisplay:10.37,2013-06-10 08:23:00,
2013-06-10 04:25:00,63.7,52.5,29.87,SSE,158,0.0,0.0,67,0.00,CLR,,0.00,WeatherDisplay:10.37,2013-06-10 08:25:00,
2013-06-10 04:27:00,63.5,52.3,29.87,East,90,0.0,0.0,67,0.00,CLR,,0.00,WeatherDisplay:10.37,2013-06-10 08:27:00,
2013-06-10 04:28:00,63.5,52.3,29.87,East,90,0.0,0.0,67,0.00,CLR,,0.00,WeatherDisplay:10.37,2013-06-10 08:28:00,
2013-06-10 04:31:00,63.5,52.7,29.87,South,180,0.0,0.0,68,0.00,CLR,,0.00,WeatherDisplay:10.37,2013-06-10 08:31:00,
2013-06-10 04:33:00,63.5,52.7,29.87,SSW,202,0.0,0.0,68,0.00,CLR,,0.00,WeatherDisplay:10.37,2013-06-10 08:33:00,
2013-06-10 04:34:00,63.5,52.7,29.87,SSE,158,0.0,0.0,68,0.00,CLR,,0.00,WeatherDisplay:10.37,2013-06-10 08:34:00,
2013-06-10 04:36:00,63.5,52.7,29.87,SSE,158,0.0,0.0,68,0.00,CLR,,0.00,WeatherDisplay:10.37,2013-06-10 08:36:00,
2013-06-10 04:38:00,63.5,52.7,29.87,SSE,158,0.0,0.0,68,0.00,CLR,,0.00,WeatherDisplay:10.37,2013-06-10 08:38:00,
2013-06-10 04:39:00,63.3,52.6,29.87,SSE,158,0.0,0.0,68,0.00,CLR,,0.00,WeatherDisplay:10.37,2013-06-10 08:39:00,
2013-06-10 04:41:00,63.1,52.4,29.87,SSE,158,0.0,0.0,68,0.00,CLR,,0.00,WeatherDisplay:10.37,2013-06-10 08:41:00,
2013-06-10 04:43:00,63.1,52.4,29.87,SE,135,0.0,0.0,68,0.00,CLR,,0.00,WeatherDisplay:10.37,2013-06-10 08:43:00,
2013-06-10 04:44:00,63.1,52.4,29.87,SE,135,0.0,0.0,68,0.00,CLR,,0.00,WeatherDisplay:10.37,2013-06-10 08:44:00,
2013-06-10 04:47:00,63.1,52.4,29.87,SE,135,0.0,0.0,68,0.00,CLR,,0.00,WeatherDisplay:10.37,2013-06-10 08:47:00,
2013-06-10 04:48:00,63.0,52.2,29.87,SE,135,0.0,0.0,68,0.00,CLR,,0.00,WeatherDisplay:10.37,2013-06-10 08:48:00,
2013-06-10 04:49:00,63.0,52.2,29.87,SE,135,0.0,0.0,68,0.00,CLR,,0.00,WeatherDisplay:10.37,2013-06-10 08:49:00,
2013-06-10 04:52:00,63.0,52.6,29.87,SE,135,0.0,0.0,69,0.00,CLR,,0.00,WeatherDisplay:10.37,2013-06-10 08:52:00,
2013-06-10 04:53:00,63.0,52.6,29.87,SE,135,0.0,0.0,69,0.00,CLR,,0.00,WeatherDisplay:10.37,2013-06-10 08:53:00,
2013-06-10 04:54:00,63.0,52.6,29.87,SSE,158,0.0,0.0,69,0.00,CLR,,0.00,WeatherDisplay:10.37,2013-06-10 08:54:00,
2013-06-10 04:57:00,63.1,52.8,29.87,WNW,292,0.0,0.0,69,0.00,CLR,,0.00,WeatherDisplay:10.37,2013-06-10 08:57:00,
2013-06-10 04:59:00,63.1,52.8,29.87,SSE,158,2.6,0.0,69,0.00,CLR,,0.00,WeatherDisplay:10.37,2013-06-10 08:59:00,
2013-06-10 05:00:00,63.3,53.0,29.87,SE,135,2.3,2.3,69,0.00,CLR,,0.00,WeatherDisplay:10.37,2013-06-10 09:00:00,
2013-06-10 05:03:00,63.3,53.0,29.87,SSE,158,0.0,0.0,69,0.00,CLR,,0.00,WeatherDisplay:10.37,2013-06-10 09:03:00,
2013-06-10 05:04:00,63.3,53.0,29.87,SSW,202,0.0,0.0,69,0.00,CLR,,0.00,WeatherDisplay:10.37,2013-06-10 09:04:00,
2013-06-10 05:05:00,63.3,53.0,29.87,SSE,158,0.0,0.0,69,0.00,CLR,,0.00,WeatherDisplay:10.37,2013-06-10 09:05:00,
2013-06-10 05:08:00,63.3,53.0,29.87,ESE,112,0.0,0.0,69,0.00,CLR,,0.00,WeatherDisplay:10.37,2013-06-10 09:08:00,
2013-06-10 05:09:00,63.3,53.0,29.87,ESE,112,0.0,0.0,69,0.00,CLR,,0.00,WeatherDisplay:10.37,2013-06-10 09:09:00,
2013-06-10 05:10:00,63.3,53.0,29.87,SSE,158,3.5,3.5,69,0.00,CLR,,0.00,WeatherDisplay:10.37,2013-06-10 09:10:00,
2013-06-10 05:13:00,63.1,52.8,29.87,SSE,158,0.0,0.0,69,0.00,CLR,,0.00,WeatherDisplay:10.37,2013-06-10 09:13:00,
2013-06-10 05:14:00,63.3,53.0,29.87,ESE,112,0.0,0.0,69,0.00,CLR,,0.00,WeatherDisplay:10.37,2013-06-10 09:14:00,
2013-06-10 05:16:00,63.3,53.0,29.87,ESE,112,0.0,0.0,69,0.00,CLR,,0.00,WeatherDisplay:10.37,2013-06-10 09:16:00,
2013-06-10 05:18:00,63.1,52.8,29.87,ENE,68,0.0,0.0,69,0.00,CLR,,0.00,WeatherDisplay:10.37,2013-06-10 09:18:00,
2013-06-10 05:19:00,63.1,52.8,29.87,ENE,68,0.0,0.0,69,0.00,CLR,,0.00,WeatherDisplay:10.37,2013-06-10 09:19:00,
2013-06-10 05:20:00,63.1,52.8,29.87,ENE,68,0.0,0.0,69,0.00,CLR,,0.00,WeatherDisplay:10.37,2013-06-10 09:20:00,
2013-06-10 05:21:00,63.1,52.8,29.87,ENE,68,0.0,0.0,69,0.00,CLR,,0.00,WeatherDisplay:10.37,2013-06-10 09:21:00,
2013-06-10 05:24:00,63.1,52.8,29.87,SSE,158,0.0,0.0,69,0.00,CLR,,0.00,WeatherDisplay:10.37,2013-06-10 09:24:00,
2013-06-10 05:25:00,63.1,52.8,29.87,SSE,158,0.0,0.0,69,0.00,CLR,,0.00,WeatherDisplay:10.37,2013-06-10 09:25:00,
2013-06-10 05:27:00,63.1,52.8,29.87,ESE,112,0.0,0.0,69,0.00,CLR,,0.00,WeatherDisplay:10.37,2013-06-10 09:27:00,
2013-06-10 05:29:00,63.1,52.8,29.87,SSW,202,0.0,0.0,69,0.00,CLR,,0.00,WeatherDisplay:10.37,2013-06-10 09:29:00,
2013-06-10 05:30:00,63.1,52.8,29.87,SSE,158,0.0,0.0,69,0.00,CLR,,0.00,WeatherDisplay:10.37,2013-06-10 09:30:00,
2013-06-10 05:32:00,63.0,53.0,29.87,SE,135,1.2,0.0,70,0.00,CLR,,0.00,WeatherDisplay:10.37,2013-06-10 09:32:00,
2013-06-10 05:34:00,63.0,53.0,29.87,NE,45,0.0,0.0,70,0.00,CLR,,0.00,WeatherDisplay:10.37,2013-06-10 09:34:00,
2013-06-10 05:35:00,63.0,53.0,29.87,SSE,158,0.0,0.0,70,0.00,CLR,,0.00,WeatherDisplay:10.37,2013-06-10 09:35:00,
2013-06-10 05:36:00,63.0,53.0,29.87,SE,135,0.0,0.0,70,0.00,CLR,,0.00,WeatherDisplay:10.37,2013-06-10 09:36:00,
2013-06-10 05:37:00,63.0,53.0,29.87,SE,135,1.2,0.0,70,0.00,CLR,,0.00,WeatherDisplay:10.37,2013-06-10 09:37:00,
2013-06-10 05:39:00,63.0,53.0,29.87,SE,135,0.0,0.0,70,0.00,CLR,,0.00,WeatherDisplay:10.37,2013-06-10 09:39:00,
2013-06-10 05:40:00,63.0,53.0,29.87,SE,135,0.0,0.0,70,0.00,CLR,,0.00,WeatherDisplay:10.37,2013-06-10 09:40:00,
2013-06-10 05:42:00,63.0,53.0,29.87,SE,135,0.0,0.0,70,0.00,CLR,,0.00,WeatherDisplay:10.37,2013-06-10 09:42:00,
2013-06-10 05:44:00,63.0,53.0,29.87,SE,135,0.0,0.0,70,0.00,CLR,,0.00,WeatherDisplay:10.37,2013-06-10 09:44:00,
2013-06-10 05:45:00,63.0,53.0,29.84,SE,135,0.0,0.0,70,0.00,CLR,,0.00,WeatherDisplay:10.37,2013-06-10 09:45:00,
2013-06-10 05:47:00,63.0,53.0,29.84,SE,135,0.0,0.0,70,0.00,CLR,,0.00,WeatherDisplay:10.37,2013-06-10 09:47:00,
2013-06-10 05:50:00,63.0,53.0,29.84,SE,135,0.0,0.0,70,0.00,CLR,,0.00,WeatherDisplay:10.37,2013-06-10 09:50:00,
2013-06-10 05:52:00,63.0,53.0,29.84,ENE,68,0.0,0.0,70,0.00,CLR,,0.00,WeatherDisplay:10.37,2013-06-10 09:52:00,
2013-06-10 05:55:00,63.0,53.0,29.84,ESE,112,0.0,0.0,70,0.00,CLR,,0.00,WeatherDisplay:10.37,2013-06-10 09:55:00,
2013-06-10 05:57:00,63.0,53.0,29.84,ESE,112,0.0,0.0,70,0.00,CLR,,0.00,WeatherDisplay:10.37,2013-06-10 09:57:00,
2013-06-10 06:00:00,63.1,53.2,29.87,ESE,112,0.0,0.0,70,0.00,CLR,,0.00,WeatherDisplay:10.37,2013-06-10 10:00:00,
2013-06-10 06:01:00,63.1,53.2,29.87,SE,135,0.0,0.0,70,0.00,CLR,,0.00,WeatherDisplay:10.37,2013-06-10 10:01:00,
2013-06-10 06:02:00,63.1,53.2,29.87,SE,135,0.0,0.0,70,0.00,CLR,,0.00,WeatherDisplay:10.37,2013-06-10 10:02:00,
2013-06-10 06:03:00,63.1,53.2,29.87,NNW,338,0.0,0.0,70,0.00,CLR,,0.00,WeatherDisplay:10.37,2013-06-10 10:03:00,
2013-06-10 06:05:00,63.1,53.2,29.87,SW,225,1.2,0.0,70,0.00,CLR,,0.00,WeatherDisplay:10.37,2013-06-10 10:05:00,
2013-06-10 06:06:00,63.3,53.4,29.87,SSW,202,1.2,0.0,70,0.00,CLR,,0.00,WeatherDisplay:10.37,2013-06-10 10:06:00,
2013-06-10 06:07:00,63.5,53.1,29.87,SSE,158,1.2,1.2,69,0.00,CLR,,0.00,WeatherDisplay:10.37,2013-06-10 10:07:00,
2013-06-10 06:08:00,63.5,53.1,29.87,SSE,158,1.2,0.0,69,0.00,CLR,,0.00,WeatherDisplay:10.37,2013-06-10 10:08:00,
2013-06-10 06:10:00,63.5,53.1,29.87,SSE,158,1.2,0.0,69,0.00,CLR,,0.00,WeatherDisplay:10.37,2013-06-10 10:10:00,
2013-06-10 06:11:00,63.5,53.1,29.87,NNW,338,1.2,0.0,69,0.00,CLR,,0.00,WeatherDisplay:10.37,2013-06-10 10:11:00,
2013-06-10 06:12:00,63.5,53.1,29.87,SSW,202,0.0,0.0,69,0.00,CLR,,0.00,WeatherDisplay:10.37,2013-06-10 10:12:00,
2013-06-10 06:13:00,63.7,53.3,29.87,SE,135,0.0,0.0,69,0.00,CLR,,0.00,WeatherDisplay:10.37,2013-06-10 10:13:00,
2013-06-10 06:15:00,63.5,53.1,29.84,SE,135,0.0,0.0,69,0.00,CLR,,0.00,WeatherDisplay:10.37,2013-06-10 10:15:00,
2013-06-10 06:17:00,63.5,53.1,29.84,SSE,158,0.0,0.0,69,0.00,CLR,,0.00,WeatherDisplay:10.37,2013-06-10 10:17:00,
2013-06-10 06:18:00,63.5,53.1,29.84,SSE,158,0.0,0.0,69,0.00,CLR,,0.00,WeatherDisplay:10.37,2013-06-10 10:18:00,
2013-06-10 06:19:00,63.5,53.1,29.84,South,180,0.0,0.0,69,0.00,CLR,,0.00,WeatherDisplay:10.37,2013-06-10 10:19:00,
2013-06-10 06:20:00,63.7,53.3,29.84,SW,225,0.0,0.0,69,0.00,CLR,,0.00,WeatherDisplay:10.37,2013-06-10 10:20:00,
2013-06-10 06:22:00,63.7,53.3,29.84,ESE,112,0.0,0.0,69,0.00,CLR,,0.00,WeatherDisplay:10.37,2013-06-10 10:22:00,
2013-06-10 06:23:00,63.7,53.3,29.84,NNE,22,1.2,0.0,69,0.00,CLR,,0.00,WeatherDisplay:10.37,2013-06-10 10:23:00,
2013-06-10 06:24:00,63.7,53.3,29.84,SW,225,1.2,0.0,69,0.00,CLR,,0.00,WeatherDisplay:10.37,2013-06-10 10:24:00,
2013-06-10 06:25:00,63.9,53.5,29.84,SE,135,1.2,0.0,69,0.00,CLR,,0.00,WeatherDisplay:10.37,2013-06-10 10:25:00,
2013-06-10 06:27:00,63.9,53.5,29.84,South,180,0.0,0.0,69,0.00,CLR,,0.00,WeatherDisplay:10.37,2013-06-10 10:27:00,
2013-06-10 06:28:00,63.9,53.5,29.84,SSW,202,2.3,0.0,69,0.00,CLR,,0.00,WeatherDisplay:10.37,2013-06-10 10:28:00,
2013-06-10 06:29:00,63.9,53.5,29.84,SW,225,2.3,0.0,69,0.00,CLR,,0.00,WeatherDisplay:10.37,2013-06-10 10:29:00,
2013-06-10 06:30:00,63.9,53.5,29.87,SSE,158,0.0,0.0,69,0.00,CLR,,0.00,WeatherDisplay:10.37,2013-06-10 10:30:00,
2013-06-10 06:32:00,63.9,53.5,29.87,SSE,158,0.0,0.0,69,0.00,CLR,,0.00,WeatherDisplay:10.37,2013-06-10 10:32:00,
2013-06-10 06:33:00,64.0,53.7,29.87,South,180,0.0,0.0,69,0.00,CLR,,0.00,WeatherDisplay:10.37,2013-06-10 10:33:00,
2013-06-10 06:34:00,64.0,53.7,29.87,SSE,158,0.0,0.0,69,0.00,CLR,,0.00,WeatherDisplay:10.37,2013-06-10 10:34:00,
2013-06-10 06:36:00,64.0,53.7,29.87,South,180,0.0,0.0,69,0.00,CLR,,0.00,WeatherDisplay:10.37,2013-06-10 10:36:00,
2013-06-10 06:37:00,64.0,53.7,29.87,SSE,158,0.0,0.0,69,0.00,CLR,,0.00,WeatherDisplay:10.37,2013-06-10 10:37:00,
2013-06-10 06:38:00,64.0,53.7,29.87,SSE,158,0.0,0.0,69,0.00,CLR,,0.00,WeatherDisplay:10.37,2013-06-10 10:38:00,
2013-06-10 06:39:00,64.0,53.7,29.87,NW,315,1.2,0.0,69,0.00,CLR,,0.00,WeatherDisplay:10.37,2013-06-10 10:39:00,
2013-06-10 06:42:00,64.2,53.8,29.87,SSE,158,0.0,1.2,69,0.00,CLR,,0.00,WeatherDisplay:10.37,2013-06-10 10:42:00,
2013-06-10 06:43:00,64.2,53.8,29.87,SSE,158,1.2,0.0,69,0.00,CLR,,0.00,WeatherDisplay:10.37,2013-06-10 10:43:00,
2013-06-10 06:45:00,64.2,53.8,29.87,SSE,158,0.0,0.0,69,0.00,CLR,,0.00,WeatherDisplay:10.37,2013-06-10 10:45:00,
2013-06-10 06:47:00,64.2,53.8,29.87,SSE,158,0.0,0.0,69,0.00,CLR,,0.00,WeatherDisplay:10.37,2013-06-10 10:47:00,
2013-06-10 06:48:00,64.2,53.8,29.87,SSE,158,0.0,0.0,69,0.00,CLR,,0.00,WeatherDisplay:10.37,2013-06-10 10:48:00,
2013-06-10 06:49:00,64.2,53.8,29.87,NNW,338,0.0,0.0,69,0.00,CLR,,0.00,WeatherDisplay:10.37,2013-06-10 10:49:00,
2013-06-10 06:50:00,64.2,53.8,29.87,SSE,158,0.0,0.0,69,0.00,CLR,,0.00,WeatherDisplay:10.37,2013-06-10 10:50:00,
2013-06-10 06:52:00,64.2,53.8,29.87,NNE,22,1.2,0.0,69,0.00,CLR,,0.00,WeatherDisplay:10.37,2013-06-10 10:52:00,
2013-06-10 06:53:00,64.2,53.8,29.87,ESE,112,1.2,0.0,69,0.00,CLR,,0.00,WeatherDisplay:10.37,2013-06-10 10:53:00,
2013-06-10 06:54:00,64.2,53.8,29.87,SSE,158,0.0,0.0,69,0.00,CLR,,0.00,WeatherDisplay:10.37,2013-06-10 10:54:00,
2013-06-10 06:55:00,64.2,53.8,29.87,NW,315,0.0,0.0,69,0.00,CLR,,0.00,WeatherDisplay:10.37,2013-06-10 10:55:00,
2013-06-10 06:58:00,64.2,53.8,29.87,ENE,68,0.0,0.0,69,0.00,CLR,,0.00,WeatherDisplay:10.37,2013-06-10 10:58:00,
2013-06-10 06:59:00,64.4,53.6,29.87,SE,135,0.0,0.0,68,0.00,CLR,,0.00,WeatherDisplay:10.37,2013-06-10 10:59:00,
2013-06-10 07:00:00,64.4,53.6,29.84,WSW,248,0.0,0.0,68,0.00,CLR,,0.00,WeatherDisplay:10.37,2013-06-10 11:00:00,
2013-06-10 07:03:00,64.4,53.6,29.84,SSE,158,1.2,0.0,68,0.00,CLR,,0.00,WeatherDisplay:10.37,2013-06-10 11:03:00,
2013-06-10 07:04:00,64.4,53.6,29.84,WNW,292,0.0,0.0,68,0.00,CLR,,0.00,WeatherDisplay:10.37,2013-06-10 11:04:00,
2013-06-10 07:05:00,64.4,53.6,29.84,SSE,158,0.0,0.0,68,0.00,CLR,,0.00,WeatherDisplay:10.37,2013-06-10 11:05:00,
2013-06-10 07:08:00,64.6,53.8,29.84,SSE,158,0.0,0.0,68,0.00,CLR,,0.00,WeatherDisplay:10.37,2013-06-10 11:08:00,
2013-06-10 07:09:00,64.8,53.9,29.84,South,180,0.0,0.0,68,0.00,CLR,,0.00,WeatherDisplay:10.37,2013-06-10 11:09:00,
2013-06-10 07:10:00,64.8,53.9,29.84,SSE,158,0.0,0.0,68,0.00,CLR,,0.00,WeatherDisplay:10.37,2013-06-10 11:10:00,
2013-06-10 07:13:00,64.9,54.1,29.84,SSE,158,1.2,0.0,68,0.00,CLR,,0.00,WeatherDisplay:10.37,2013-06-10 11:13:00,
2013-06-10 07:14:00,64.9,54.1,29.84,SSE,158,1.2,0.0,68,0.00,CLR,,0.00,WeatherDisplay:10.37,2013-06-10 11:14:00,
2013-06-10 07:15:00,64.9,54.1,29.84,SE,135,0.0,0.0,68,0.00,CLR,,0.00,WeatherDisplay:10.37,2013-06-10 11:15:00,
2013-06-10 07:19:00,65.1,53.9,29.84,South,180,0.0,0.0,67,0.00,CLR,,0.00,WeatherDisplay:10.37,2013-06-10 11:19:00,
2013-06-10 07:20:00,65.1,53.9,29.84,West,270,0.9,0.0,67,0.00,CLR,,0.00,WeatherDisplay:10.37,2013-06-10 11:20:00,
2013-06-10 07:24:00,65.1,53.9,29.84,SSE,158,2.3,0.0,67,0.00,CLR,,0.00,WeatherDisplay:10.37,2013-06-10 11:24:00,
2013-06-10 07:26:00,65.1,53.9,29.84,North,0,0.0,0.0,67,0.00,CLR,,0.00,WeatherDisplay:10.37,2013-06-10 11:26:00,
2013-06-10 07:29:00,65.3,54.1,29.84,SSE,158,0.0,0.0,67,0.00,CLR,,0.00,WeatherDisplay:10.37,2013-06-10 11:29:00,
2013-06-10 07:30:00,65.3,54.1,29.84,SSE,158,0.0,0.0,67,0.00,CLR,,0.00,WeatherDisplay:10.37,2013-06-10 11:30:00,
2013-06-10 07:31:00,65.5,54.2,29.84,SW,225,1.2,0.0,67,0.00,CLR,,0.00,WeatherDisplay:10.37,2013-06-10 11:31:00,
2013-06-10 07:34:00,65.7,54.0,29.84,SSE,158,1.2,0.0,66,0.00,CLR,,0.00,WeatherDisplay:10.37,2013-06-10 11:34:00,
2013-06-10 07:35:00,65.7,54.0,29.84,SW,225,1.2,0.0,66,0.00,CLR,,0.00,WeatherDisplay:10.37,2013-06-10 11:35:00,
2013-06-10 07:36:00,65.7,54.0,29.84,NNW,338,1.2,0.0,66,0.00,CLR,,0.00,WeatherDisplay:10.37,2013-06-10 11:36:00,
2013-06-10 07:39:00,65.8,54.2,29.84,South,180,0.0,0.0,66,0.00,CLR,,0.00,WeatherDisplay:10.37,2013-06-10 11:39:00,
2013-06-10 07:40:00,65.8,54.2,29.84,South,180,0.0,0.0,66,0.00,CLR,,0.00,WeatherDisplay:10.37,2013-06-10 11:40:00,
2013-06-10 07:41:00,65.8,54.2,29.84,NNW,338,1.2,0.0,66,0.00,CLR,,0.00,WeatherDisplay:10.37,2013-06-10 11:41:00,
2013-06-10 07:45:00,66.0,54.3,29.78,SSE,158,1.2,0.0,66,0.00,CLR,,0.00,WeatherDisplay:10.37,2013-06-10 11:45:00,
2013-06-10 07:46:00,66.0,54.3,29.78,North,0,0.0,0.0,66,0.00,CLR,,0.00,WeatherDisplay:10.37,2013-06-10 11:46:00,
2013-06-10 07:50:00,66.0,53.9,29.78,SW,225,2.3,2.3,65,0.00,CLR,,0.00,WeatherDisplay:10.37,2013-06-10 11:50:00,
2013-06-10 07:51:00,66.0,53.9,29.78,SSE,158,2.3,2.3,65,0.00,CLR,,0.00,WeatherDisplay:10.37,2013-06-10 11:51:00,
2013-06-10 07:52:00,66.2,53.7,29.78,SW,225,1.2,1.2,64,0.00,CLR,,0.00,WeatherDisplay:10.37,2013-06-10 11:52:00,
2013-06-10 07:55:00,66.2,53.7,29.78,WSW,248,6.9,6.9,64,0.00,CLR,,0.00,WeatherDisplay:10.37,2013-06-10 11:55:00,
2013-06-10 07:56:00,66.2,53.7,29.78,ESE,112,6.9,0.0,64,0.00,CLR,,0.00,WeatherDisplay:10.37,2013-06-10 11:56:00,
2013-06-10 07:57:00,66.4,53.8,29.78,SSW,202,1.2,0.0,64,0.00,CLR,,0.00,WeatherDisplay:10.37,2013-06-10 11:57:00,
2013-06-10 08:00:00,66.4,53.8,29.81,SSE,158,1.2,0.0,64,0.00,CLR,,0.00,WeatherDisplay:10.37,2013-06-10 12:00:00,
2013-06-10 08:01:00,66.4,53.8,29.81,SSE,158,1.2,0.0,64,0.00,CLR,,0.00,WeatherDisplay:10.37,2013-06-10 12:01:00,
2013-06-10 08:02:00,66.4,53.8,29.81,SSE,158,1.2,0.0,64,0.00,CLR,,0.00,WeatherDisplay:10.37,2013-06-10 12:02:00,
2013-06-10 08:05:00,66.6,53.6,29.81,SSE,158,0.0,0.0,63,0.00,CLR,,0.00,WeatherDisplay:10.37,2013-06-10 12:05:00,
2013-06-10 08:06:00,66.6,53.6,29.81,SSE,158,1.2,0.0,63,0.00,CLR,,0.00,WeatherDisplay:10.37,2013-06-10 12:06:00,
2013-06-10 08:07:00,66.6,54.0,29.81,South,180,0.0,0.0,64,0.00,CLR,,0.00,WeatherDisplay:10.37,2013-06-10 12:07:00,
2013-06-10 08:11:00,66.7,54.2,29.81,ENE,68,0.0,0.0,64,0.00,CLR,,0.00,WeatherDisplay:10.37,2013-06-10 12:11:00,
2013-06-10 08:12:00,66.7,54.2,29.81,SSW,202,2.3,0.0,64,0.00,CLR,,0.00,WeatherDisplay:10.37,2013-06-10 12:12:00,
2013-06-10 08:17:00,66.9,53.9,29.81,SW,225,1.4,0.0,63,0.00,CLR,,0.00,WeatherDisplay:10.37,2013-06-10 12:17:00,
2013-06-10 08:18:00,66.9,53.9,29.81,SSE,158,2.3,0.0,63,0.00,CLR,,0.00,WeatherDisplay:10.37,2013-06-10 12:18:00,
2013-06-10 08:22:00,66.9,54.3,29.81,WNW,292,1.4,0.0,64,0.00,CLR,,0.00,WeatherDisplay:10.37,2013-06-10 12:22:00,
2013-06-10 08:23:00,66.9,54.3,29.81,SSW,202,1.2,0.0,64,0.00,CLR,,0.00,WeatherDisplay:10.37,2013-06-10 12:23:00,
2013-06-10 08:27:00,66.9,54.3,29.81,WSW,248,2.0,0.0,64,0.00,CLR,,0.00,WeatherDisplay:10.37,2013-06-10 12:27:00,
2013-06-10 08:28:00,66.7,54.2,29.81,SSE,158,2.3,2.3,64,0.00,CLR,,0.00,WeatherDisplay:10.37,2013-06-10 12:28:00,
2013-06-10 08:32:00,66.6,54.0,29.81,SSE,158,0.0,0.0,64,0.00,CLR,,0.00,WeatherDisplay:10.37,2013-06-10 12:32:00,
2013-06-10 08:33:00,66.6,54.0,29.81,West,270,0.0,0.0,64,0.00,CLR,,0.00,WeatherDisplay:10.37,2013-06-10 12:33:00,
2013-06-10 08:37:00,66.4,54.3,29.81,SSE,158,0.0,0.0,65,0.00,CLR,,0.00,WeatherDisplay:10.37,2013-06-10 12:37:00,
2013-06-10 08:38:00,66.4,54.3,29.81,West,270,0.0,0.0,65,0.00,CLR,,0.00,WeatherDisplay:10.37,2013-06-10 12:38:00,
2013-06-10 08:39:00,66.4,54.3,29.81,ESE,112,0.0,0.0,65,0.00,CLR,,0.00,WeatherDisplay:10.37,2013-06-10 12:39:00,
2013-06-10 08:42:00,66.2,54.5,29.81,WSW,248,2.3,0.0,66,0.00,CLR,,0.00,WeatherDisplay:10.37,2013-06-10 12:42:00,
2013-06-10 08:43:00,66.2,54.5,29.81,SE,135,1.6,0.0,66,0.00,CLR,,0.00,WeatherDisplay:10.37,2013-06-10 12:43:00,
2013-06-10 08:44:00,66.2,54.5,29.81,SW,225,1.2,0.0,66,0.00,CLR,,0.00,WeatherDisplay:10.37,2013-06-10 12:44:00,
2013-06-10 08:47:00,66.4,54.7,29.81,SSW,202,0.0,0.0,66,0.00,CLR,,0.00,WeatherDisplay:10.37,2013-06-10 12:47:00,
2013-06-10 08:48:00,66.4,54.7,29.81,SSW,202,1.2,1.2,66,0.00,CLR,,0.00,WeatherDisplay:10.37,2013-06-10 12:48:00,
2013-06-10 08:49:00,66.4,54.7,29.81,SSE,158,1.2,0.0,66,0.00,CLR,,0.00,WeatherDisplay:10.37,2013-06-10 12:49:00,
2013-06-10 08:52:00,66.6,54.8,29.81,SSE,158,1.2,0.0,66,0.00,CLR,,0.00,WeatherDisplay:10.37,2013-06-10 12:52:00,
2013-06-10 08:53:00,66.6,54.8,29.81,SE,135,1.2,0.0,66,0.00,CLR,,0.00,WeatherDisplay:10.37,2013-06-10 12:53:00,
2013-06-10 08:54:00,66.6,54.8,29.81,SE,135,0.9,0.9,66,0.00,CLR,,0.00,WeatherDisplay:10.37,2013-06-10 12:54:00,
2013-06-10 08:57:00,66.7,55.0,29.81,SSE,158,0.0,0.0,66,0.00,CLR,,0.00,WeatherDisplay:10.37,2013-06-10 12:57:00,
2013-06-10 08:58:00,66.7,55.0,29.81,SE,135,0.0,0.0,66,0.00,CLR,,0.00,WeatherDisplay:10.37,2013-06-10 12:58:00,
2013-06-10 08:59:00,66.7,55.0,29.81,SE,135,1.2,0.0,66,0.00,CLR,,0.00,WeatherDisplay:10.37,2013-06-10 12:59:00,
2013-06-10 09:00:00,66.7,55.0,29.81,SSW,202,2.3,2.3,66,0.00,CLR,,0.00,WeatherDisplay:10.37,2013-06-10 13:00:00,
2013-06-10 09:03:00,67.1,55.4,29.81,SSW,202,0.0,0.0,66,0.00,CLR,,0.00,WeatherDisplay:10.37,2013-06-10 13:03:00,
2013-06-10 09:04:00,67.1,55.4,29.81,SSE,158,0.0,0.0,66,0.00,CLR,,0.00,WeatherDisplay:10.37,2013-06-10 13:04:00,
2013-06-10 09:05:00,67.3,55.5,29.81,South,180,2.3,0.0,66,0.00,CLR,,0.00,WeatherDisplay:10.37,2013-06-10 13:05:00,
2013-06-10 09:08:00,67.5,55.7,29.81,SSE,158,0.9,0.0,66,0.00,CLR,,0.00,WeatherDisplay:10.37,2013-06-10 13:08:00,
2013-06-10 09:09:00,67.5,55.7,29.81,SSW,202,0.0,0.0,66,0.00,CLR,,0.00,WeatherDisplay:10.37,2013-06-10 13:09:00,
2013-06-10 09:10:00,67.5,55.3,29.81,SSE,158,2.3,2.3,65,0.00,CLR,,0.00,WeatherDisplay:10.37,2013-06-10 13:10:00,
2013-06-10 09:13:00,67.5,55.3,29.81,SSW,202,2.4,0.0,65,0.00,CLR,,0.00,WeatherDisplay:10.37,2013-06-10 13:13:00,
2013-06-10 09:14:00,67.5,55.3,29.81,SE,135,2.3,2.3,65,0.00,CLR,,0.00,WeatherDisplay:10.37,2013-06-10 13:14:00,
2013-06-10 09:15:00,67.6,55.5,29.81,ESE,112,2.3,0.0,65,0.00,CLR,,0.00,WeatherDisplay:10.37,2013-06-10 13:15:00,
2013-06-10 09:18:00,67.5,55.3,29.81,North,0,1.6,0.0,65,0.00,CLR,,0.00,WeatherDisplay:10.37,2013-06-10 13:18:00,
2013-06-10 09:19:00,67.5,55.3,29.81,SSW,202,1.2,0.0,65,0.00,CLR,,0.00,WeatherDisplay:10.37,2013-06-10 13:19:00,
2013-06-10 09:20:00,67.5,55.3,29.81,WNW,292,3.8,0.0,65,0.00,CLR,,0.00,WeatherDisplay:10.37,2013-06-10 13:20:00,
2013-06-10 09:24:00,67.5,55.3,29.81,SSW,202,0.0,0.0,65,0.00,CLR,,0.00,WeatherDisplay:10.37,2013-06-10 13:24:00,
2013-06-10 09:25:00,67.5,55.7,29.81,WNW,292,1.2,0.0,66,0.00,CLR,,0.00,WeatherDisplay:10.37,2013-06-10 13:25:00,
2013-06-10 09:26:00,67.5,55.7,29.81,ESE,112,0.0,0.0,66,0.00,CLR,,0.00,WeatherDisplay:10.37,2013-06-10 13:26:00,
2013-06-10 09:29:00,67.5,55.7,29.81,SSW,202,1.2,0.0,66,0.00,CLR,,0.00,WeatherDisplay:10.37,2013-06-10 13:29:00,
2013-06-10 09:30:00,67.5,55.7,29.81,WSW,248,2.9,0.0,66,0.00,CLR,,0.00,WeatherDisplay:10.37,2013-06-10 13:30:00,
2013-06-10 09:32:00,67.5,55.7,29.81,South,180,0.0,1.2,66,0.00,CLR,,0.00,WeatherDisplay:10.37,2013-06-10 13:32:00,
2013-06-10 09:34:00,67.5,56.9,29.81,ESE,112,1.2,0.0,69,0.00,CLR,,0.00,WeatherDisplay:10.37,2013-06-10 13:34:00,
2013-06-10 09:35:00,67.3,56.4,29.81,NW,315,0.0,0.0,68,0.00,CLR,,0.00,WeatherDisplay:10.37,2013-06-10 13:35:00,
2013-06-10 09:37:00,67.3,56.4,29.81,WSW,248,2.3,0.0,68,0.00,CLR,,0.00,WeatherDisplay:10.37,2013-06-10 13:37:00,
2013-06-10 09:39:00,67.3,56.8,29.81,SSW,202,0.0,0.0,69,0.00,CLR,,0.00,WeatherDisplay:10.37,2013-06-10 13:39:00,
2013-06-10 09:40:00,67.1,56.6,29.81,ESE,112,1.2,1.2,69,0.00,CLR,,0.00,WeatherDisplay:10.37,2013-06-10 13:40:00,
2013-06-10 09:42:00,67.1,56.6,29.81,SSE,158,0.0,0.9,69,0.00,CLR,,0.00,WeatherDisplay:10.37,2013-06-10 13:42:00,
2013-06-10 09:45:00,67.1,57.0,29.78,NNW,338,1.2,0.0,70,0.00,CLR,,0.00,WeatherDisplay:10.37,2013-06-10 13:45:00,
2013-06-10 09:46:00,67.1,57.4,29.78,SSW,202,1.2,0.0,71,0.00,CLR,,0.00,WeatherDisplay:10.37,2013-06-10 13:46:00,
2013-06-10 09:47:00,67.1,57.0,29.78,SE,135,1.2,0.0,70,0.00,CLR,,0.00,WeatherDisplay:10.37,2013-06-10 13:47:00,
2013-06-10 09:48:00,67.1,57.0,29.78,SSW,202,0.0,0.0,70,0.00,CLR,,0.00,WeatherDisplay:10.37,2013-06-10 13:48:00,
2013-06-10 09:50:00,67.1,57.4,29.78,SE,135,1.2,0.0,71,0.00,CLR,,0.00,WeatherDisplay:10.37,2013-06-10 13:50:00,
2013-06-10 09:52:00,67.3,57.9,29.78,SW,225,1.2,0.0,72,0.00,CLR,,0.00,WeatherDisplay:10.37,2013-06-10 13:52:00,
2013-06-10 09:53:00,67.1,57.8,29.78,WNW,292,2.0,0.0,72,0.00,CLR,,0.00,WeatherDisplay:10.37,2013-06-10 13:53:00,
2013-06-10 09:55:00,67.3,57.6,29.78,West,270,1.2,0.0,71,0.00,CLR,,0.00,WeatherDisplay:10.37,2013-06-10 13:55:00,
2013-06-10 09:57:00,67.3,57.9,29.78,SE,135,0.9,0.0,72,0.00,CLR,,0.00,WeatherDisplay:10.37,2013-06-10 13:57:00,
2013-06-10 09:58:00,67.3,57.9,29.78,SSE,158,1.2,0.0,72,0.00,CLR,,0.00,WeatherDisplay:10.37,2013-06-10 13:58:00,
2013-06-10 10:00:00,67.3,57.9,29.75,SSE,158,2.3,2.3,72,0.00,CLR,,0.00,WeatherDisplay:10.37,2013-06-10 14:00:00,
2013-06-10 10:02:00,67.3,58.7,29.75,SSE,158,1.6,0.0,74,0.00,CLR,,0.00,WeatherDisplay:10.37,2013-06-10 14:02:00,
2013-06-10 10:03:00,67.3,58.3,29.75,North,0,1.2,0.0,73,0.00,CLR,,0.00,WeatherDisplay:10.37,2013-06-10 14:03:00,
2013-06-10 10:05:00,67.5,59.3,29.75,SE,135,1.2,0.0,75,0.00,CLR,,0.00,WeatherDisplay:10.37,2013-06-10 14:05:00,
2013-06-10 10:06:00,67.5,58.9,29.75,SSW,202,1.4,0.0,74,0.00,CLR,,0.00,WeatherDisplay:10.37,2013-06-10 14:06:00,
2013-06-10 10:08:00,67.5,58.9,29.75,SSW,202,2.6,0.0,74,0.00,CLR,,0.00,WeatherDisplay:10.37,2013-06-10 14:08:00,
2013-06-10 10:09:00,67.6,59.4,29.75,NW,315,2.3,2.3,75,0.00,CLR,,0.00,WeatherDisplay:10.37,2013-06-10 14:09:00,
2013-06-10 10:10:00,67.6,59.4,29.75,NNW,338,1.2,1.2,75,0.00,CLR,,0.00,WeatherDisplay:10.37,2013-06-10 14:10:00,
2013-06-10 10:11:00,67.8,60.0,29.75,SSW,202,1.2,0.0,76,0.00,CLR,,0.00,WeatherDisplay:10.37,2013-06-10 14:11:00,
2013-06-10 10:13:00,67.8,59.6,29.75,SSE,158,1.2,0.0,75,0.00,CLR,,0.00,WeatherDisplay:10.37,2013-06-10 14:13:00,
2013-06-10 10:14:00,67.8,59.6,29.75,SSE,158,0.0,0.0,75,0.00,CLR,,0.00,WeatherDisplay:10.37,2013-06-10 14:14:00,
2013-06-10 10:15:00,67.8,59.6,29.75,SSW,202,2.3,0.0,75,0.00,CLR,,0.00,WeatherDisplay:10.37,2013-06-10 14:15:00,
2013-06-10 10:16:00,67.8,59.6,29.75,SSE,158,2.3,0.0,75,0.00,CLR,,0.00,WeatherDisplay:10.37,2013-06-10 14:16:00,
2013-06-10 10:18:00,67.8,60.0,29.75,SSE,158,1.2,1.2,76,0.00,CLR,,0.00,WeatherDisplay:10.37,2013-06-10 14:18:00,
2013-06-10 10:19:00,67.8,60.0,29.75,NW,315,2.3,0.0,76,0.00,CLR,,0.00,WeatherDisplay:10.37,2013-06-10 14:19:00,
2013-06-10 10:20:00,67.8,60.0,29.75,South,180,0.0,0.0,76,0.00,CLR,,0.00,WeatherDisplay:10.37,2013-06-10 14:20:00,
2013-06-10 10:21:00,67.8,60.0,29.75,SSW,202,1.2,0.0,76,0.00,CLR,,0.00,WeatherDisplay:10.37,2013-06-10 14:21:00,
2013-06-10 10:24:00,67.8,60.3,29.75,NNW,338,0.0,0.0,77,0.00,CLR,,0.00,WeatherDisplay:10.37,2013-06-10 14:24:00,
2013-06-10 10:25:00,67.8,60.3,29.75,WSW,248,1.2,0.0,77,0.00,CLR,,0.00,WeatherDisplay:10.37,2013-06-10 14:25:00,
2013-06-10 10:27:00,67.8,60.3,29.75,South,180,1.2,1.2,77,0.00,CLR,,0.00,WeatherDisplay:10.37,2013-06-10 14:27:00,
2013-06-10 10:29:00,67.8,60.3,29.75,ENE,68,1.2,0.0,77,0.00,CLR,,0.00,WeatherDisplay:10.37,2013-06-10 14:29:00,
2013-06-10 10:30:00,67.8,60.3,29.75,SSE,158,0.0,0.0,77,0.00,CLR,,0.00,WeatherDisplay:10.37,2013-06-10 14:30:00,
2013-06-10 10:32:00,67.8,60.3,29.75,SSE,158,1.4,0.0,77,0.00,CLR,,0.00,WeatherDisplay:10.37,2013-06-10 14:32:00,
2013-06-10 10:34:00,68.0,60.9,29.75,SSE,158,2.3,2.3,78,0.00,CLR,,0.00,WeatherDisplay:10.37,2013-06-10 14:34:00,
2013-06-10 10:35:00,67.8,60.7,29.75,WSW,248,2.3,0.0,78,0.00,CLR,,0.00,WeatherDisplay:10.37,2013-06-10 14:35:00,
2013-06-10 10:37:00,68.0,60.5,29.75,WNW,292,1.2,0.0,77,0.00,CLR,,0.00,WeatherDisplay:10.37,2013-06-10 14:37:00,
2013-06-10 10:39:00,68.0,60.5,29.75,NE,45,0.0,0.0,77,0.00,CLR,,0.00,WeatherDisplay:10.37,2013-06-10 14:39:00,
2013-06-10 10:42:00,68.0,60.9,29.75,NW,315,0.0,0.0,78,0.00,CLR,,0.00,WeatherDisplay:10.37,2013-06-10 14:42:00,
2013-06-10 10:44:00,68.2,61.1,29.75,SSW,202,1.6,0.0,78,0.00,CLR,,0.00,WeatherDisplay:10.37,2013-06-10 14:44:00,
2013-06-10 10:45:00,68.0,60.9,29.75,SSW,202,2.3,2.3,78,0.00,CLR,,0.00,WeatherDisplay:10.37,2013-06-10 14:45:00,
2013-06-10 10:48:00,68.2,61.1,29.75,NE,45,3.5,3.5,78,0.00,CLR,,0.00,WeatherDisplay:10.37,2013-06-10 14:48:00,
2013-06-10 10:50:00,68.2,61.1,29.75,NNW,338,1.2,0.0,78,0.00,CLR,,0.00,WeatherDisplay:10.37,2013-06-10 14:50:00,
2013-06-10 10:53:00,68.4,61.6,29.75,SSE,158,2.3,0.0,79,0.00,CLR,,0.00,WeatherDisplay:10.37,2013-06-10 14:53:00,
2013-06-10 10:55:00,68.4,61.6,29.75,NW,315,4.6,0.0,79,0.00,CLR,,0.00,WeatherDisplay:10.37,2013-06-10 14:55:00,
2013-06-10 10:58:00,68.4,61.2,29.75,SSW,202,2.3,2.3,78,0.00,CLR,,0.00,WeatherDisplay:10.37,2013-06-10 14:58:00,
2013-06-10 11:00:00,68.5,61.8,29.72,North,0,3.5,3.5,79,0.00,CLR,,0.00,WeatherDisplay:10.37,2013-06-10 15:00:00,
2013-06-10 11:01:00,68.5,61.8,29.72,ESE,112,6.9,6.9,79,0.00,CLR,,0.00,WeatherDisplay:10.37,2013-06-10 15:01:00,
2013-06-10 11:03:00,68.7,61.6,29.72,SE,135,1.2,0.0,78,0.00,CLR,,0.00,WeatherDisplay:10.37,2013-06-10 15:03:00,
2013-06-10 11:04:00,68.7,61.6,29.72,NW,315,0.9,0.0,78,0.00,CLR,,0.00,WeatherDisplay:10.37,2013-06-10 15:04:00,
2013-06-10 11:05:00,68.9,61.8,29.72,North,0,2.3,0.0,78,0.00,CLR,,0.00,WeatherDisplay:10.37,2013-06-10 15:05:00,
2013-06-10 11:06:00,68.9,61.8,29.72,SSW,202,1.6,1.6,78,0.00,CLR,,0.00,WeatherDisplay:10.37,2013-06-10 15:06:00,
2013-06-10 11:08:00,68.9,61.8,29.72,ESE,112,0.0,0.9,78,0.00,CLR,,0.00,WeatherDisplay:10.37,2013-06-10 15:08:00,
2013-06-10 11:09:00,68.9,61.8,29.72,NNE,22,3.5,0.0,78,0.00,CLR,,0.00,WeatherDisplay:10.37,2013-06-10 15:09:00,
2013-06-10 11:10:00,69.1,61.9,29.72,West,270,1.2,1.2,78,0.00,CLR,,0.00,WeatherDisplay:10.37,2013-06-10 15:10:00,
2013-06-10 11:12:00,69.3,62.1,29.72,SSW,202,1.2,1.2,78,0.00,CLR,,0.00,WeatherDisplay:10.37,2013-06-10 15:12:00,
2013-06-10 11:13:00,69.4,62.3,29.72,ESE,112,1.2,0.0,78,0.00,CLR,,0.00,WeatherDisplay:10.37,2013-06-10 15:13:00,
2013-06-10 11:14:00,69.4,62.3,29.72,SE,135,2.3,0.0,78,0.00,CLR,,0.00,WeatherDisplay:10.37,2013-06-10 15:14:00,
2013-06-10 11:16:00,69.6,62.5,29.75,NNW,338,4.9,4.9,78,0.00,CLR,,0.00,WeatherDisplay:10.37,2013-06-10 15:16:00,
2013-06-10 11:17:00,69.8,62.3,29.75,North,0,4.6,4.6,77,0.00,CLR,,0.00,WeatherDisplay:10.37,2013-06-10 15:17:00,
2013-06-10 11:18:00,70.2,62.6,29.75,SE,135,0.0,0.0,77,0.00,CLR,,0.00,WeatherDisplay:10.37,2013-06-10 15:18:00,
2013-06-10 11:19:00,70.2,62.6,29.75,SE,135,0.0,0.0,77,0.00,CLR,,0.00,WeatherDisplay:10.37,2013-06-10 15:19:00,
2013-06-10 11:20:00,70.3,62.8,29.75,ESE,112,0.0,0.0,77,0.00,CLR,,0.00,WeatherDisplay:10.37,2013-06-10 15:20:00,
2013-06-10 11:21:00,70.5,63.0,29.75,SE,135,0.0,0.0,77,0.00,CLR,,0.00,WeatherDisplay:10.37,2013-06-10 15:21:00,
2013-06-10 11:22:00,70.9,63.7,29.75,NNW,338,2.6,0.0,78,0.00,CLR,,0.00,WeatherDisplay:10.37,2013-06-10 15:22:00,
2013-06-10 11:23:00,70.9,62.9,29.75,NW,315,2.3,2.3,76,0.00,CLR,,0.00,WeatherDisplay:10.37,2013-06-10 15:23:00,
2013-06-10 11:24:00,71.1,63.1,29.75,East,90,2.3,2.3,76,0.00,CLR,,0.00,WeatherDisplay:10.37,2013-06-10 15:24:00,
2013-06-10 11:25:00,71.2,63.3,29.75,NNW,338,2.3,2.3,76,0.00,CLR,,0.00,WeatherDisplay:10.37,2013-06-10 15:25:00,
2013-06-10 11:26:00,71.4,63.1,29.75,West,270,0.0,0.0,75,0.00,CLR,,0.00,WeatherDisplay:10.37,2013-06-10 15:26:00,
2013-06-10 11:27:00,71.2,62.1,29.75,NNW,338,0.0,0.0,73,0.00,CLR,,0.00,WeatherDisplay:10.37,2013-06-10 15:27:00,
2013-06-10 11:29:00,71.2,62.1,29.75,SSW,202,5.8,0.0,73,0.00,CLR,,0.00,WeatherDisplay:10.37,2013-06-10 15:29:00,
2013-06-10 11:30:00,71.4,62.3,29.72,South,180,1.2,0.0,73,0.00,CLR,,0.00,WeatherDisplay:10.37,2013-06-10 15:30:00,
2013-06-10 11:32:00,71.4,61.9,29.72,SSW,202,2.3,2.3,72,0.00,CLR,,0.00,WeatherDisplay:10.37,2013-06-10 15:32:00,
2013-06-10 11:34:00,71.8,61.9,29.72,ESE,112,0.0,0.0,71,0.00,CLR,,0.00,WeatherDisplay:10.37,2013-06-10 15:34:00,
2013-06-10 11:35:00,71.8,62.3,29.72,SSE,158,1.2,0.0,72,0.00,CLR,,0.00,WeatherDisplay:10.37,2013-06-10 15:35:00,
2013-06-10 11:37:00,71.8,61.5,29.72,North,0,3.5,3.5,70,0.00,CLR,,0.00,WeatherDisplay:10.37,2013-06-10 15:37:00,
2013-06-10 11:39:00,72.0,62.0,29.72,South,180,1.4,0.0,71,0.00,CLR,,0.00,WeatherDisplay:10.37,2013-06-10 15:39:00,
2013-06-10 11:40:00,72.0,61.6,29.72,ESE,112,2.3,2.3,70,0.00,CLR,,0.00,WeatherDisplay:10.37,2013-06-10 15:40:00,
2013-06-10 11:42:00,72.1,61.8,29.72,NNW,338,0.0,0.0,70,0.00,CLR,,0.00,WeatherDisplay:10.37,2013-06-10 15:42:00,
2013-06-10 11:43:00,72.1,61.8,29.72,NNW,338,0.0,0.0,70,0.00,CLR,,0.00,WeatherDisplay:10.37,2013-06-10 15:43:00,
2013-06-10 11:44:00,72.3,62.0,29.72,SSW,202,0.0,0.0,70,0.00,CLR,,0.00,WeatherDisplay:10.37,2013-06-10 15:44:00,
2013-06-10 11:45:00,72.1,61.4,29.72,SSW,202,0.0,0.0,69,0.00,CLR,,0.00,WeatherDisplay:10.37,2013-06-10 15:45:00,
2013-06-10 11:48:00,72.1,61.0,29.72,SSE,158,1.2,0.0,68,0.00,CLR,,0.00,WeatherDisplay:10.37,2013-06-10 15:48:00,
2013-06-10 11:49:00,72.5,61.7,29.72,NNW,338,2.0,0.0,69,0.00,CLR,,0.00,WeatherDisplay:10.37,2013-06-10 15:49:00,
2013-06-10 11:50:00,72.5,61.7,29.72,SSW,202,2.4,2.4,69,0.00,CLR,,0.00,WeatherDisplay:10.37,2013-06-10 15:50:00,
2013-06-10 11:52:00,72.5,61.3,29.72,SSW,202,2.3,2.3,68,0.00,CLR,,0.00,WeatherDisplay:10.37,2013-06-10 15:52:00,
2013-06-10 11:53:00,72.5,60.9,29.72,WNW,292,2.3,2.3,67,0.00,CLR,,0.00,WeatherDisplay:10.37,2013-06-10 15:53:00,
2013-06-10 11:54:00,72.5,60.9,29.72,NNE,22,2.3,2.3,67,0.00,CLR,,0.00,WeatherDisplay:10.37,2013-06-10 15:54:00,
2013-06-10 11:55:00,72.5,60.9,29.72,SSE,158,2.3,0.0,67,0.00,CLR,,0.00,WeatherDisplay:10.37,2013-06-10 15:55:00,
2013-06-10 11:57:00,72.5,60.9,29.72,ESE,112,2.3,0.0,67,0.00,CLR,,0.00,WeatherDisplay:10.37,2013-06-10 15:57:00,
2013-06-10 11:58:00,72.5,60.9,29.72,South,180,0.0,1.4,67,0.00,CLR,,0.00,WeatherDisplay:10.37,2013-06-10 15:58:00,
2013-06-10 11:59:00,72.5,60.9,29.72,WSW,248,4.6,4.6,67,0.00,CLR,,0.00,WeatherDisplay:10.37,2013-06-10 15:59:00,
2013-06-10 12:00:00,72.5,60.5,29.75,NNW,338,2.3,2.3,66,0.00,CLR,,0.00,WeatherDisplay:10.37,2013-06-10 16:00:00,
2013-06-10 12:02:00,72.7,61.1,29.75,NNW,338,3.5,3.5,67,0.00,CLR,,0.00,WeatherDisplay:10.37,2013-06-10 16:02:00,
2013-06-10 12:03:00,72.7,61.1,29.75,ESE,112,3.5,3.5,67,0.00,CLR,,0.00,WeatherDisplay:10.37,2013-06-10 16:03:00,
2013-06-10 12:04:00,72.7,61.1,29.75,NW,315,2.3,2.3,67,0.00,CLR,,0.00,WeatherDisplay:10.37,2013-06-10 16:04:00,
2013-06-10 12:05:00,72.9,61.7,29.75,WNW,292,2.3,0.0,68,0.00,CLR,,0.00,WeatherDisplay:10.37,2013-06-10 16:05:00,
2013-06-10 12:06:00,73.0,61.4,29.75,East,90,0.0,0.0,67,0.00,CLR,,0.00,WeatherDisplay:10.37,2013-06-10 16:06:00,
2013-06-10 12:07:00,73.0,61.9,29.75,West,270,5.4,5.4,68,0.00,CLR,,0.00,WeatherDisplay:10.37,2013-06-10 16:07:00,
2013-06-10 12:08:00,73.0,61.0,29.75,SW,225,5.8,5.8,66,0.00,CLR,,0.00,WeatherDisplay:10.37,2013-06-10 16:08:00,
2013-06-10 12:09:00,73.0,61.4,29.75,NNW,338,5.8,5.8,67,0.00,CLR,,0.00,WeatherDisplay:10.37,2013-06-10 16:09:00,
2013-06-10 12:10:00,73.0,61.0,29.75,SSE,158,3.8,3.8,66,0.00,CLR,,0.00,WeatherDisplay:10.37,2013-06-10 16:10:00,
2013-06-10 12:11:00,73.0,61.0,29.75,NE,45,3.5,3.5,66,0.00,CLR,,0.00,WeatherDisplay:10.37,2013-06-10 16:11:00,
2013-06-10 12:13:00,73.0,61.0,29.75,SSE,158,2.3,2.3,66,0.00,CLR,,0.00,WeatherDisplay:10.37,2013-06-10 16:13:00,
2013-06-10 12:14:00,73.0,61.0,29.75,SSE,158,1.2,1.2,66,0.00,CLR,,0.00,WeatherDisplay:10.37,2013-06-10 16:14:00,
2013-06-10 12:15:00,73.0,61.4,29.72,South,180,2.3,2.3,67,0.00,CLR,,0.00,WeatherDisplay:10.37,2013-06-10 16:15:00,
2013-06-10 12:16:00,73.0,61.0,29.72,SSW,202,1.6,0.0,66,0.00,CLR,,0.00,WeatherDisplay:10.37,2013-06-10 16:16:00,
2013-06-10 12:18:00,73.2,61.6,29.72,South,180,4.6,0.0,67,0.00,CLR,,0.00,WeatherDisplay:10.37,2013-06-10 16:18:00,
2013-06-10 12:19:00,73.4,61.8,29.72,SSW,202,1.2,0.0,67,0.00,CLR,,0.00,WeatherDisplay:10.37,2013-06-10 16:19:00,
2013-06-10 12:20:00,73.4,61.8,29.72,NE,45,1.2,0.0,67,0.00,CLR,,0.00,WeatherDisplay:10.37,2013-06-10 16:20:00,
2013-06-10 12:21:00,73.2,61.6,29.72,SSW,202,1.2,0.0,67,0.00,CLR,,0.00,WeatherDisplay:10.37,2013-06-10 16:21:00,
2013-06-10 12:23:00,73.0,61.0,29.72,SSE,158,2.3,2.3,66,0.00,CLR,,0.00,WeatherDisplay:10.37,2013-06-10 16:23:00,
2013-06-10 12:24:00,72.9,61.3,29.72,SSE,158,1.2,0.0,67,0.00,CLR,,0.00,WeatherDisplay:10.37,2013-06-10 16:24:00,
2013-06-10 12:25:00,72.9,61.3,29.72,SSE,158,0.0,0.0,67,0.00,CLR,,0.00,WeatherDisplay:10.37,2013-06-10 16:25:00,
2013-06-10 12:26:00,72.7,61.1,29.72,SE,135,1.2,0.0,67,0.00,CLR,,0.00,WeatherDisplay:10.37,2013-06-10 16:26:00,
2013-06-10 12:28:00,72.9,61.7,29.72,NNW,338,2.3,2.3,68,0.00,CLR,,0.00,WeatherDisplay:10.37,2013-06-10 16:28:00,
2013-06-10 12:29:00,72.7,61.1,29.72,SW,225,2.3,0.0,67,0.00,CLR,,0.00,WeatherDisplay:10.37,2013-06-10 16:29:00,
2013-06-10 12:30:00,72.7,61.5,29.72,SSW,202,1.2,0.0,68,0.00,CLR,,0.00,WeatherDisplay:10.37,2013-06-10 16:30:00,
2013-06-10 12:31:00,72.7,61.5,29.72,ESE,112,0.0,0.0,68,0.00,CLR,,0.00,WeatherDisplay:10.37,2013-06-10 16:31:00,
2013-06-10 12:33:00,72.5,61.3,29.72,SSE,158,0.0,0.0,68,0.00,CLR,,0.00,WeatherDisplay:10.37,2013-06-10 16:33:00,
2013-06-10 12:34:00,72.3,61.6,29.72,WSW,248,2.9,2.9,69,0.00,CLR,,0.00,WeatherDisplay:10.37,2013-06-10 16:34:00,
2013-06-10 12:36:00,72.3,62.0,29.72,ESE,112,0.0,0.0,70,0.00,CLR,,0.00,WeatherDisplay:10.37,2013-06-10 16:36:00,
2013-06-10 12:38:00,72.3,62.0,29.72,ESE,112,1.2,0.0,70,0.00,CLR,,0.00,WeatherDisplay:10.37,2013-06-10 16:38:00,
2013-06-10 12:39:00,72.1,62.2,29.72,NNW,338,1.2,0.0,71,0.00,CLR,,0.00,WeatherDisplay:10.37,2013-06-10 16:39:00,
2013-06-10 12:41:00,72.1,62.2,29.72,SSE,158,0.0,0.0,71,0.00,CLR,,0.00,WeatherDisplay:10.37,2013-06-10 16:41:00,
2013-06-10 12:42:00,72.1,62.2,29.72,SW,225,0.0,0.0,71,0.00,CLR,,0.00,WeatherDisplay:10.37,2013-06-10 16:42:00,
2013-06-10 12:43:00,72.0,62.0,29.72,SSE,158,1.2,0.0,71,0.00,CLR,,0.00,WeatherDisplay:10.37,2013-06-10 16:43:00,
2013-06-10 12:44:00,71.8,61.5,29.72,SSE,158,1.2,1.2,70,0.00,CLR,,0.00,WeatherDisplay:10.37,2013-06-10 16:44:00,
2013-06-10 12:46:00,71.8,61.5,29.72,ESE,112,0.0,0.0,70,0.00,CLR,,0.00,WeatherDisplay:10.37,2013-06-10 16:46:00,
2013-06-10 12:47:00,71.8,61.5,29.72,ESE,112,2.3,0.0,70,0.00,CLR,,0.00,WeatherDisplay:10.37,2013-06-10 16:47:00,
2013-06-10 12:48:00,71.8,61.5,29.72,SE,135,0.0,0.0,70,0.00,CLR,,0.00,WeatherDisplay:10.37,2013-06-10 16:48:00,
2013-06-10 12:49:00,72.0,62.0,29.72,SE,135,2.3,2.3,71,0.00,CLR,,0.00,WeatherDisplay:10.37,2013-06-10 16:49:00,
2013-06-10 12:50:00,72.0,62.0,29.72,SE,135,2.3,0.0,71,0.00,CLR,,0.00,WeatherDisplay:10.37,2013-06-10 16:50:00,
2013-06-10 12:51:00,72.0,62.4,29.72,SE,135,0.0,0.0,72,0.00,CLR,,0.00,WeatherDisplay:10.37,2013-06-10 16:51:00,
2013-06-10 12:52:00,72.0,62.4,29.72,SE,135,2.3,0.0,72,0.00,CLR,,0.00,WeatherDisplay:10.37,2013-06-10 16:52:00,
2013-06-10 12:53:00,72.0,62.4,29.72,SW,225,1.2,0.0,72,0.00,CLR,,0.00,WeatherDisplay:10.37,2013-06-10 16:53:00,
2013-06-10 12:54:00,71.8,62.3,29.72,SSW,202,2.3,2.3,72,0.00,CLR,,0.00,WeatherDisplay:10.37,2013-06-10 16:54:00,
2013-06-10 12:55:00,71.8,62.3,29.72,NW,315,1.2,1.2,72,0.00,CLR,,0.00,WeatherDisplay:10.37,2013-06-10 16:55:00,
2013-06-10 12:57:00,71.8,61.9,29.72,South,180,0.0,0.0,71,0.00,CLR,,0.00,WeatherDisplay:10.37,2013-06-10 16:57:00,
2013-06-10 12:58:00,71.8,61.9,29.72,SE,135,0.0,0.0,71,0.00,CLR,,0.00,WeatherDisplay:10.37,2013-06-10 16:58:00,
2013-06-10 12:59:00,71.8,61.9,29.72,SSW,202,2.0,0.0,71,0.00,CLR,,0.00,WeatherDisplay:10.37,2013-06-10 16:59:00,
2013-06-10 13:00:00,71.8,62.7,29.69,East,90,2.3,2.3,73,0.00,CLR,,0.00,WeatherDisplay:10.37,2013-06-10 17:00:00,
2013-06-10 13:02:00,71.6,62.1,29.69,SSW,202,1.4,0.0,72,0.00,CLR,,0.00,WeatherDisplay:10.37,2013-06-10 17:02:00,
2013-06-10 13:03:00,71.6,62.1,29.69,South,180,1.2,1.2,72,0.00,CLR,,0.00,WeatherDisplay:10.37,2013-06-10 17:03:00,
2013-06-10 13:04:00,71.6,62.1,29.69,NNW,338,2.3,0.0,72,0.00,CLR,,0.00,WeatherDisplay:10.37,2013-06-10 17:04:00,
2013-06-10 13:05:00,71.4,62.3,29.69,SSE,158,2.0,2.0,73,0.00,CLR,,0.00,WeatherDisplay:10.37,2013-06-10 17:05:00,
2013-06-10 13:07:00,71.4,62.7,29.69,SW,225,1.6,0.0,74,0.00,CLR,,0.00,WeatherDisplay:10.37,2013-06-10 17:07:00,
2013-06-10 13:08:00,71.2,62.1,29.69,WSW,248,2.0,2.0,73,0.00,CLR,,0.00,WeatherDisplay:10.37,2013-06-10 17:08:00,
2013-06-10 13:10:00,71.2,61.7,29.69,SSW,202,2.3,2.3,72,0.00,CLR,,0.00,WeatherDisplay:10.37,2013-06-10 17:10:00,
2013-06-10 13:13:00,71.1,62.0,29.69,SSE,158,1.2,0.0,73,0.00,CLR,,0.00,WeatherDisplay:10.37,2013-06-10 17:13:00,
2013-06-10 13:15:00,70.9,62.6,29.69,SSE,158,2.3,2.3,75,0.00,CLR,,0.00,WeatherDisplay:10.37,2013-06-10 17:15:00,
2013-06-10 13:18:00,70.7,62.4,29.69,WNW,292,2.3,2.3,75,0.00,CLR,,0.00,WeatherDisplay:10.37,2013-06-10 17:18:00,
2013-06-10 13:19:00,70.7,62.4,29.69,WNW,292,2.3,2.3,75,0.00,CLR,,0.00,WeatherDisplay:10.37,2013-06-10 17:19:00,
2013-06-10 13:20:00,70.7,62.4,29.69,SW,225,2.4,2.4,75,0.00,CLR,,0.00,WeatherDisplay:10.37,2013-06-10 17:20:00,
2013-06-10 13:23:00,70.5,62.2,29.69,ESE,112,2.3,2.3,75,0.00,CLR,,0.00,WeatherDisplay:10.37,2013-06-10 17:23:00,
2013-06-10 13:24:00,70.5,62.2,29.69,West,270,3.5,3.5,75,0.00,CLR,,0.00,WeatherDisplay:10.37,2013-06-10 17:24:00,
2013-06-10 13:25:00,70.5,62.2,29.69,SSE,158,3.5,3.5,75,0.00,CLR,,0.00,WeatherDisplay:10.37,2013-06-10 17:25:00,
2013-06-10 13:27:00,70.7,62.8,29.69,NNW,338,2.3,2.3,76,0.00,CLR,,0.00,WeatherDisplay:10.37,2013-06-10 17:27:00,
2013-06-10 13:28:00,70.7,63.1,29.69,SSE,158,2.3,2.3,77,0.00,CLR,,0.00,WeatherDisplay:10.37,2013-06-10 17:28:00,
2013-06-10 13:29:00,70.7,62.8,29.69,NNW,338,2.0,0.0,76,0.00,CLR,,0.00,WeatherDisplay:10.37,2013-06-10 17:29:00,
2013-06-10 13:30:00,70.5,62.6,29.69,SSW,202,2.3,2.3,76,0.00,CLR,,0.00,WeatherDisplay:10.37,2013-06-10 17:30:00,
2013-06-10 13:32:00,70.5,62.6,29.69,NW,315,1.2,0.0,76,0.00,CLR,,0.00,WeatherDisplay:10.37,2013-06-10 17:32:00,
2013-06-10 13:33:00,70.5,62.6,29.69,WNW,292,2.3,2.3,76,0.00,CLR,,0.00,WeatherDisplay:10.37,2013-06-10 17:33:00,
2013-06-10 13:34:00,70.5,62.6,29.69,SSW,202,2.3,2.3,76,0.00,CLR,,0.00,WeatherDisplay:10.37,2013-06-10 17:34:00,
2013-06-10 13:35:00,70.3,62.4,29.69,NE,45,1.2,1.2,76,0.00,CLR,,0.00,WeatherDisplay:10.37,2013-06-10 17:35:00,
2013-06-10 13:37:00,70.2,62.2,29.69,SSE,158,2.3,2.3,76,0.00,CLR,,0.00,WeatherDisplay:10.37,2013-06-10 17:37:00,
2013-06-10 13:38:00,70.2,62.2,29.69,SSW,202,2.3,0.0,76,0.00,CLR,,0.00,WeatherDisplay:10.37,2013-06-10 17:38:00,
2013-06-10 13:39:00,70.2,62.2,29.69,NNW,338,2.3,2.3,76,0.00,CLR,,0.00,WeatherDisplay:10.37,2013-06-10 17:39:00,
2013-06-10 13:40:00,70.0,62.1,29.69,SW,225,4.6,4.6,76,0.00,CLR,,0.00,WeatherDisplay:10.37,2013-06-10 17:40:00,
2013-06-10 13:43:00,70.0,62.4,29.69,SSW,202,2.3,0.0,77,0.00,CLR,,0.00,WeatherDisplay:10.37,2013-06-10 17:43:00,
2013-06-10 13:44:00,70.0,62.4,29.69,SW,225,1.6,0.0,77,0.00,CLR,,0.00,WeatherDisplay:10.37,2013-06-10 17:44:00,
2013-06-10 13:45:00,69.8,62.3,29.69,SSE,158,2.2,0.0,77,0.00,CLR,,0.00,WeatherDisplay:10.37,2013-06-10 17:45:00,
2013-06-10 13:48:00,69.6,62.8,29.69,WSW,248,7.1,7.1,79,0.00,CLR,,0.00,WeatherDisplay:10.37,2013-06-10 17:48:00,
2013-06-10 13:49:00,69.6,62.8,29.69,SSE,158,6.9,6.9,79,0.00,CLR,,0.00,WeatherDisplay:10.37,2013-06-10 17:49:00,
2013-06-10 13:51:00,69.1,62.3,29.69,NE,45,2.3,2.3,79,0.00,CLR,,0.00,WeatherDisplay:10.37,2013-06-10 17:51:00,
2013-06-10 13:53:00,69.1,62.6,29.69,SSW,202,1.6,0.0,80,0.00,CLR,,0.00,WeatherDisplay:10.37,2013-06-10 17:53:00,
2013-06-10 13:54:00,69.1,62.6,29.69,SSW,202,3.6,3.6,80,0.00,CLR,,0.00,WeatherDisplay:10.37,2013-06-10 17:54:00,
2013-06-10 13:55:00,68.9,62.8,29.69,WSW,248,3.5,3.5,81,0.00,CLR,,0.00,WeatherDisplay:10.37,2013-06-10 17:55:00,
2013-06-10 13:56:00,68.7,62.7,29.69,SSE,158,3.3,3.3,81,0.00,CLR,,0.00,WeatherDisplay:10.37,2013-06-10 17:56:00,
2013-06-10 13:59:00,68.5,62.5,29.69,WSW,248,2.3,2.3,81,0.00,CLR,,0.00,WeatherDisplay:10.37,2013-06-10 17:59:00,
2013-06-10 14:00:00,68.5,62.8,29.66,SSW,202,1.2,0.0,82,0.00,CLR,,0.00,WeatherDisplay:10.37,2013-06-10 18:00:00,
2013-06-10 14:01:00,68.4,62.3,29.66,SSW,202,1.2,0.0,81,0.00,CLR,,0.00,WeatherDisplay:10.37,2013-06-10 18:01:00,
2013-06-10 14:04:00,68.4,62.6,29.66,ESE,112,1.2,0.0,82,0.00,CLR,,0.00,WeatherDisplay:10.37,2013-06-10 18:04:00,
2013-06-10 14:05:00,68.4,62.6,29.66,SSE,158,1.2,0.0,82,0.00,CLR,,0.00,WeatherDisplay:10.37,2013-06-10 18:05:00,
2013-06-10 14:07:00,68.4,62.6,29.66,SSE,158,2.4,0.0,82,0.00,CLR,,0.00,WeatherDisplay:10.37,2013-06-10 18:07:00,
2013-06-10 14:09:00,68.4,63.0,29.66,SE,135,0.0,0.0,83,0.00,CLR,,0.00,WeatherDisplay:10.37,2013-06-10 18:09:00,
2013-06-10 14:11:00,68.4,63.3,29.66,SSE,158,4.6,4.6,84,0.00,CLR,,0.00,WeatherDisplay:10.37,2013-06-10 18:11:00,
2013-06-10 14:12:00,68.4,63.3,29.66,WSW,248,1.2,0.0,84,0.00,CLR,,0.00,WeatherDisplay:10.37,2013-06-10 18:12:00,
2013-06-10 14:14:00,68.4,63.3,29.66,WNW,292,1.4,1.4,84,0.00,CLR,,0.00,WeatherDisplay:10.37,2013-06-10 18:14:00,
2013-06-10 14:16:00,68.2,62.8,29.66,NNW,338,3.5,0.0,83,0.00,CLR,,0.00,WeatherDisplay:10.37,2013-06-10 18:16:00,
2013-06-10 14:18:00,68.0,63.0,29.66,South,180,1.2,1.6,84,0.00,CLR,,0.00,WeatherDisplay:10.37,2013-06-10 18:18:00,
2013-06-10 14:19:00,68.0,63.0,29.66,NE,45,2.3,2.3,84,0.00,CLR,,0.00,WeatherDisplay:10.37,2013-06-10 18:19:00,
2013-06-10 14:20:00,68.0,63.0,29.66,SSE,158,2.3,2.3,84,0.00,CLR,,0.00,WeatherDisplay:10.37,2013-06-10 18:20:00,
2013-06-10 14:21:00,68.2,63.2,29.66,NNE,22,0.0,0.0,84,0.00,CLR,,0.00,WeatherDisplay:10.37,2013-06-10 18:21:00,
2013-06-10 14:23:00,68.2,63.2,29.66,SSE,158,2.4,2.4,84,0.00,CLR,,0.00,WeatherDisplay:10.37,2013-06-10 18:23:00,
2013-06-10 14:24:00,68.0,63.3,29.66,SSW,202,2.3,0.0,85,0.00,CLR,,0.00,WeatherDisplay:10.37,2013-06-10 18:24:00,
2013-06-10 14:25:00,68.0,63.3,29.66,North,0,2.6,2.6,85,0.00,CLR,,0.00,WeatherDisplay:10.37,2013-06-10 18:25:00,
2013-06-10 14:26:00,68.0,63.7,29.66,NNW,338,3.5,3.5,86,0.00,CLR,,0.00,WeatherDisplay:10.37,2013-06-10 18:26:00,
2013-06-10 14:28:00,67.8,63.5,29.66,NNW,338,3.5,3.5,86,0.00,CLR,,0.00,WeatherDisplay:10.37,2013-06-10 18:28:00,
2013-06-10 14:29:00,67.8,63.8,29.66,ESE,112,2.3,2.3,87,0.00,CLR,,0.00,WeatherDisplay:10.37,2013-06-10 18:29:00,
2013-06-10 14:30:00,67.8,63.8,29.69,SSE,158,1.2,0.0,87,0.00,CLR,,0.00,WeatherDisplay:10.37,2013-06-10 18:30:00,
2013-06-10 14:32:00,67.8,63.8,29.69,WSW,248,1.2,0.0,87,0.00,CLR,,0.00,WeatherDisplay:10.37,2013-06-10 18:32:00,
2013-06-10 14:33:00,68.0,64.0,29.69,SSE,158,1.4,0.0,87,0.00,CLR,,0.00,WeatherDisplay:10.37,2013-06-10 18:33:00,
2013-06-10 14:34:00,68.0,64.0,29.69,ESE,112,1.2,1.2,87,0.00,CLR,,0.00,WeatherDisplay:10.37,2013-06-10 18:34:00,
2013-06-10 14:35:00,68.0,64.3,29.69,SSE,158,1.2,0.0,88,0.00,CLR,,0.00,WeatherDisplay:10.37,2013-06-10 18:35:00,
2013-06-10 14:37:00,68.0,64.0,29.69,SSE,158,2.4,0.0,87,0.00,CLR,,0.00,WeatherDisplay:10.37,2013-06-10 18:37:00,
2013-06-10 14:38:00,68.0,64.0,29.69,NW,315,2.3,2.3,87,0.00,CLR,,0.00,WeatherDisplay:10.37,2013-06-10 18:38:00,
2013-06-10 14:39:00,68.0,64.3,29.69,ESE,112,2.3,0.0,88,0.00,CLR,,0.00,WeatherDisplay:10.37,2013-06-10 18:39:00,
2013-06-10 14:40:00,68.0,64.3,29.69,SE,135,1.2,0.0,88,0.00,CLR,,0.00,WeatherDisplay:10.37,2013-06-10 18:40:00,
2013-06-10 14:41:00,68.0,64.3,29.69,SE,135,1.2,0.0,88,0.00,CLR,,0.00,WeatherDisplay:10.37,2013-06-10 18:41:00,
2013-06-10 14:43:00,67.8,64.1,29.69,NW,315,2.4,2.4,88,0.00,CLR,,0.00,WeatherDisplay:10.37,2013-06-10 18:43:00,
2013-06-10 14:45:00,67.8,64.5,29.69,South,180,1.2,0.0,89,0.00,CLR,,0.00,WeatherDisplay:10.37,2013-06-10 18:45:00,
2013-06-10 14:48:00,67.6,64.3,29.69,WNW,292,0.0,0.0,89,0.00,CLR,,0.00,WeatherDisplay:10.37,2013-06-10 18:48:00,
2013-06-10 14:50:00,67.5,64.1,29.69,South,180,2.3,0.0,89,0.00,CLR,,0.00,WeatherDisplay:10.37,2013-06-10 18:50:00,
2013-06-10 14:51:00,67.5,64.1,29.69,SSE,158,2.3,0.0,89,0.00,CLR,,0.00,WeatherDisplay:10.37,2013-06-10 18:51:00,
2013-06-10 14:53:00,67.3,63.9,29.69,SE,135,0.0,0.0,89,0.00,CLR,,0.00,WeatherDisplay:10.37,2013-06-10 18:53:00,
2013-06-10 14:54:00,67.1,63.7,29.69,ESE,112,0.0,0.0,89,0.00,CLR,,0.00,WeatherDisplay:10.37,2013-06-10 18:54:00,
2013-06-10 14:55:00,67.1,64.1,29.69,ESE,112,0.0,0.0,90,0.00,CLR,,0.00,WeatherDisplay:10.37,2013-06-10 18:55:00,
2013-06-10 14:56:00,67.1,64.1,29.69,East,90,2.3,0.0,90,0.00,CLR,,0.00,WeatherDisplay:10.37,2013-06-10 18:56:00,
2013-06-10 14:58:00,67.1,64.1,29.69,SSE,158,0.0,0.0,90,0.00,CLR,,0.00,WeatherDisplay:10.37,2013-06-10 18:58:00,
2013-06-10 14:59:00,67.1,64.1,29.69,SSE,158,2.3,0.0,90,0.00,CLR,,0.00,WeatherDisplay:10.37,2013-06-10 18:59:00,
2013-06-10 15:00:00,67.1,64.1,29.69,ESE,112,2.3,0.0,90,0.00,CLR,,0.00,WeatherDisplay:10.37,2013-06-10 19:00:00,
2013-06-10 15:02:00,67.1,64.1,29.69,ESE,112,1.2,0.0,90,0.00,CLR,,0.00,WeatherDisplay:10.37,2013-06-10 19:02:00,
2013-06-10 15:03:00,66.9,63.9,29.69,ESE,112,1.2,0.0,90,0.00,CLR,,0.00,WeatherDisplay:10.37,2013-06-10 19:03:00,
2013-06-10 15:04:00,66.9,63.9,29.69,ESE,112,0.0,0.0,90,0.00,CLR,,0.00,WeatherDisplay:10.37,2013-06-10 19:04:00,
2013-06-10 15:06:00,66.9,64.2,29.69,SSE,158,2.3,2.3,91,0.00,CLR,,0.00,WeatherDisplay:10.37,2013-06-10 19:06:00,
2013-06-10 15:07:00,66.7,64.0,29.69,ESE,112,2.3,0.0,91,0.00,CLR,,0.00,WeatherDisplay:10.37,2013-06-10 19:07:00,
2013-06-10 15:08:00,66.7,64.0,29.69,ESE,112,0.0,0.0,91,0.00,CLR,,0.00,WeatherDisplay:10.37,2013-06-10 19:08:00,
2013-06-10 15:09:00,66.7,64.0,29.69,SE,135,0.0,0.0,91,0.00,CLR,,0.00,WeatherDisplay:10.37,2013-06-10 19:09:00,
2013-06-10 15:11:00,66.7,64.0,29.69,SSE,158,2.3,0.0,91,0.00,CLR,,0.00,WeatherDisplay:10.37,2013-06-10 19:11:00,
2013-06-10 15:13:00,66.6,63.9,29.69,SE,135,0.0,0.0,91,0.00,CLR,,0.00,WeatherDisplay:10.37,2013-06-10 19:13:00,
2013-06-10 15:14:00,66.6,64.2,29.69,SSE,158,0.0,0.0,92,0.00,CLR,,0.00,WeatherDisplay:10.37,2013-06-10 19:14:00,
2013-06-10 15:17:00,66.6,64.2,29.66,SE,135,1.2,0.0,92,0.00,CLR,,0.00,WeatherDisplay:10.37,2013-06-10 19:17:00,
2013-06-10 15:18:00,66.6,64.2,29.66,SE,135,0.0,0.0,92,0.00,CLR,,0.00,WeatherDisplay:10.37,2013-06-10 19:18:00,
2013-06-10 15:19:00,66.6,64.2,29.66,SSE,158,1.2,0.0,92,0.00,CLR,,0.00,WeatherDisplay:10.37,2013-06-10 19:19:00,
2013-06-10 15:20:00,66.6,64.2,29.66,ENE,68,1.2,0.0,92,0.00,CLR,,0.00,WeatherDisplay:10.37,2013-06-10 19:20:00,
2013-06-10 15:22:00,66.6,64.2,29.66,ESE,112,1.2,0.0,92,0.00,CLR,,0.00,WeatherDisplay:10.37,2013-06-10 19:22:00,
2013-06-10 15:23:00,66.6,64.2,29.66,SE,135,2.3,2.3,92,0.00,CLR,,0.00,WeatherDisplay:10.37,2013-06-10 19:23:00,
2013-06-10 15:24:00,66.4,64.0,29.66,SE,135,2.3,2.3,92,0.00,CLR,,0.00,WeatherDisplay:10.37,2013-06-10 19:24:00,
2013-06-10 15:25:00,66.4,64.0,29.66,SE,135,2.3,2.3,92,0.00,CLR,,0.00,WeatherDisplay:10.37,2013-06-10 19:25:00,
2013-06-10 15:27:00,66.4,64.0,29.66,SE,135,1.2,0.0,92,0.00,CLR,,0.00,WeatherDisplay:10.37,2013-06-10 19:27:00,
2013-06-10 15:28:00,66.4,64.0,29.66,SE,135,0.0,0.0,92,0.00,CLR,,0.00,WeatherDisplay:10.37,2013-06-10 19:28:00,
2013-06-10 15:29:00,66.4,64.0,29.66,SW,225,0.0,0.0,92,0.00,CLR,,0.00,WeatherDisplay:10.37,2013-06-10 19:29:00,
2013-06-10 15:30:00,66.4,64.0,29.66,SE,135,1.2,1.2,92,0.00,CLR,,0.00,WeatherDisplay:10.37,2013-06-10 19:30:00,
2013-06-10 15:32:00,66.4,64.3,29.66,ESE,112,0.0,0.0,93,0.00,CLR,,0.00,WeatherDisplay:10.37,2013-06-10 19:32:00,
2013-06-10 15:33:00,66.4,64.3,29.66,West,270,1.4,0.0,93,0.00,CLR,,0.00,WeatherDisplay:10.37,2013-06-10 19:33:00,
2013-06-10 15:34:00,66.4,64.3,29.66,ESE,112,1.2,1.2,93,0.00,CLR,,0.00,WeatherDisplay:10.37,2013-06-10 19:34:00,
2013-06-10 15:35:00,66.4,64.3,29.66,ESE,112,1.2,0.0,93,0.00,CLR,,0.00,WeatherDisplay:10.37,2013-06-10 19:35:00,
2013-06-10 15:38:00,66.4,64.3,29.66,SE,135,1.2,0.0,93,0.00,CLR,,0.00,WeatherDisplay:10.37,2013-06-10 19:38:00,
2013-06-10 15:39:00,66.4,64.3,29.66,SSE,158,0.0,0.0,93,0.00,CLR,,0.00,WeatherDisplay:10.37,2013-06-10 19:39:00,
2013-06-10 15:40:00,66.4,64.3,29.66,SSW,202,0.0,0.0,93,0.00,CLR,,0.00,WeatherDisplay:10.37,2013-06-10 19:40:00,
2013-06-10 15:41:00,66.4,64.3,29.66,ESE,112,0.0,0.0,93,0.00,CLR,,0.00,WeatherDisplay:10.37,2013-06-10 19:41:00,
2013-06-10 15:43:00,66.2,64.1,29.66,SSE,158,3.5,3.5,93,0.00,CLR,,0.00,WeatherDisplay:10.37,2013-06-10 19:43:00,
2013-06-10 15:44:00,66.2,64.1,29.66,SSE,158,1.2,1.4,93,0.00,CLR,,0.00,WeatherDisplay:10.37,2013-06-10 19:44:00,
2013-06-10 15:45:00,66.2,64.1,29.63,SSE,158,1.2,1.4,93,0.00,CLR,,0.00,WeatherDisplay:10.37,2013-06-10 19:45:00,
2013-06-10 15:46:00,66.2,64.1,29.63,SW,225,1.2,0.0,93,0.00,CLR,,0.00,WeatherDisplay:10.37,2013-06-10 19:46:00,
2013-06-10 15:48:00,66.2,64.4,29.63,SSE,158,2.3,2.3,94,0.00,CLR,,0.00,WeatherDisplay:10.37,2013-06-10 19:48:00,
2013-06-10 15:49:00,66.2,64.4,29.63,South,180,1.6,0.0,94,0.00,CLR,,0.00,WeatherDisplay:10.37,2013-06-10 19:49:00,
2013-06-10 15:50:00,66.2,64.4,29.63,ESE,112,3.5,3.5,94,0.00,CLR,,0.00,WeatherDisplay:10.37,2013-06-10 19:50:00,
2013-06-10 15:51:00,66.2,64.4,29.63,South,180,3.5,3.5,94,0.00,CLR,,0.00,WeatherDisplay:10.37,2013-06-10 19:51:00,
2013-06-10 15:54:00,66.2,64.4,29.63,SSE,158,0.0,0.0,94,0.00,CLR,,0.00,WeatherDisplay:10.37,2013-06-10 19:54:00,
2013-06-10 15:55:00,66.2,64.4,29.63,ESE,112,0.0,0.0,94,0.00,CLR,,0.00,WeatherDisplay:10.37,2013-06-10 19:55:00,
2013-06-10 15:56:00,66.4,64.6,29.63,SE,135,0.0,0.0,94,0.00,CLR,,0.00,WeatherDisplay:10.37,2013-06-10 19:56:00,
2013-06-10 15:57:00,66.2,64.4,29.63,SE,135,0.0,0.0,94,0.00,CLR,,0.00,WeatherDisplay:10.37,2013-06-10 19:57:00,
2013-06-10 15:59:00,66.2,64.4,29.63,ESE,112,2.9,0.0,94,0.00,CLR,,0.00,WeatherDisplay:10.37,2013-06-10 19:59:00,
2013-06-10 16:00:00,66.2,64.4,29.63,West,270,3.5,0.0,94,0.00,CLR,,0.00,WeatherDisplay:10.37,2013-06-10 20:00:00,
2013-06-10 16:01:00,66.2,64.4,29.63,SSW,202,3.5,3.5,94,0.00,CLR,,0.00,WeatherDisplay:10.37,2013-06-10 20:01:00,
2013-06-10 16:02:00,66.2,64.4,29.63,ESE,112,3.5,3.5,94,0.00,CLR,,0.00,WeatherDisplay:10.37,2013-06-10 20:02:00,
2013-06-10 16:04:00,66.2,64.4,29.63,North,0,2.3,2.3,94,0.00,CLR,,0.00,WeatherDisplay:10.37,2013-06-10 20:04:00,
2013-06-10 16:05:00,66.2,64.4,29.63,SSE,158,2.3,2.3,94,0.00,CLR,,0.00,WeatherDisplay:10.37,2013-06-10 20:05:00,
2013-06-10 16:06:00,66.2,64.4,29.63,SSW,202,1.2,0.0,94,0.00,CLR,,0.00,WeatherDisplay:10.37,2013-06-10 20:06:00,
2013-06-10 16:07:00,66.2,64.4,29.63,ESE,112,2.3,2.3,94,0.00,CLR,,0.00,WeatherDisplay:10.37,2013-06-10 20:07:00,
2013-06-10 16:09:00,66.2,64.4,29.63,SSE,158,1.2,0.0,94,0.00,CLR,,0.00,WeatherDisplay:10.37,2013-06-10 20:09:00,
2013-06-10 16:10:00,66.2,64.4,29.63,NNW,338,1.2,0.0,94,0.00,CLR,,0.00,WeatherDisplay:10.37,2013-06-10 20:10:00,
2013-06-10 16:11:00,66.2,64.4,29.63,SSW,202,1.2,0.0,94,0.00,CLR,,0.00,WeatherDisplay:10.37,2013-06-10 20:11:00,
2013-06-10 16:13:00,66.0,64.2,29.63,SSW,202,0.0,0.9,94,0.00,CLR,,0.00,WeatherDisplay:10.37,2013-06-10 20:13:00,
2013-06-10 16:14:00,66.0,64.2,29.63,WSW,248,2.9,0.0,94,0.00,CLR,,0.00,WeatherDisplay:10.37,2013-06-10 20:14:00,
2013-06-10 16:15:00,66.0,64.2,29.63,South,180,2.3,2.3,94,0.00,CLR,,0.00,WeatherDisplay:10.37,2013-06-10 20:15:00,
2013-06-10 16:16:00,66.0,64.2,29.63,West,270,2.3,0.0,94,0.00,CLR,,0.00,WeatherDisplay:10.37,2013-06-10 20:16:00,
2013-06-10 16:18:00,66.0,64.2,29.63,North,0,2.3,2.3,94,0.00,CLR,,0.00,WeatherDisplay:10.37,2013-06-10 20:18:00,
2013-06-10 16:20:00,66.0,64.2,29.63,NW,315,3.5,3.5,94,0.00,CLR,,0.00,WeatherDisplay:10.37,2013-06-10 20:20:00,
2013-06-10 16:23:00,66.0,64.2,29.63,SW,225,1.2,0.0,94,0.00,CLR,,0.00,WeatherDisplay:10.37,2013-06-10 20:23:00,
2013-06-10 16:25:00,66.0,64.2,29.63,SSW,202,0.9,0.0,94,0.00,CLR,,0.00,WeatherDisplay:10.37,2013-06-10 20:25:00,
2013-06-10 16:26:00,66.0,64.2,29.63,WSW,248,1.6,0.0,94,0.00,CLR,,0.00,WeatherDisplay:10.37,2013-06-10 20:26:00,
2013-06-10 16:28:00,65.8,64.1,29.63,SSE,158,1.2,1.2,94,0.00,CLR,,0.00,WeatherDisplay:10.37,2013-06-10 20:28:00,
2013-06-10 16:30:00,65.8,64.1,29.63,SSE,158,1.2,0.0,94,0.00,CLR,,0.00,WeatherDisplay:10.37,2013-06-10 20:30:00,
2013-06-10 16:31:00,65.8,64.1,29.63,SSE,158,0.0,0.0,94,0.00,CLR,,0.00,WeatherDisplay:10.37,2013-06-10 20:31:00,
2013-06-10 16:33:00,66.0,64.2,29.63,SSE,158,0.0,0.0,94,0.00,CLR,,0.00,WeatherDisplay:10.37,2013-06-10 20:33:00,
2013-06-10 16:34:00,66.0,64.2,29.63,ESE,112,1.2,0.0,94,0.00,CLR,,0.00,WeatherDisplay:10.37,2013-06-10 20:34:00,
2013-06-10 16:35:00,66.2,64.7,29.63,South,180,1.2,0.0,95,0.00,CLR,,0.00,WeatherDisplay:10.37,2013-06-10 20:35:00,
2013-06-10 16:36:00,66.2,64.7,29.63,SE,135,1.2,0.0,95,0.00,CLR,,0.00,WeatherDisplay:10.37,2013-06-10 20:36:00,
2013-06-10 16:38:00,66.2,64.7,29.63,SW,225,0.0,0.0,95,0.00,CLR,,0.00,WeatherDisplay:10.37,2013-06-10 20:38:00,
2013-06-10 16:39:00,66.2,64.7,29.63,SSE,158,0.0,0.0,95,0.00,CLR,,0.00,WeatherDisplay:10.37,2013-06-10 20:39:00,
2013-06-10 16:40:00,66.2,64.7,29.63,ENE,68,0.0,0.0,95,0.00,CLR,,0.00,WeatherDisplay:10.37,2013-06-10 20:40:00,
2013-06-10 16:41:00,66.2,64.7,29.63,SE,135,0.0,0.0,95,0.00,CLR,,0.00,WeatherDisplay:10.37,2013-06-10 20:41:00,
2013-06-10 16:43:00,66.2,64.7,29.63,SE,135,0.0,0.0,95,0.04,RA,,0.04,WeatherDisplay:10.37,2013-06-10 20:43:00,
2013-06-10 16:44:00,66.2,64.7,29.63,ENE,68,0.0,0.0,95,0.04,RA,,0.04,WeatherDisplay:10.37,2013-06-10 20:44:00,
2013-06-10 16:45:00,66.2,64.7,29.63,SSE,158,0.0,0.0,95,0.04,RA,,0.04,WeatherDisplay:10.37,2013-06-10 20:45:00,
2013-06-10 16:46:00,66.2,64.7,29.63,East,90,0.0,0.0,95,0.04,RA,,0.04,WeatherDisplay:10.37,2013-06-10 20:46:00,
2013-06-10 16:48:00,66.2,64.7,29.63,SE,135,0.0,0.0,95,0.04,RA,,0.04,WeatherDisplay:10.37,2013-06-10 20:48:00,
2013-06-10 16:49:00,66.2,64.7,29.63,SSE,158,0.0,0.0,95,0.04,RA,,0.04,WeatherDisplay:10.37,2013-06-10 20:49:00,
2013-06-10 16:50:00,66.2,64.7,29.63,SSE,158,1.2,0.0,95,0.04,RA,,0.04,WeatherDisplay:10.37,2013-06-10 20:50:00,
2013-06-10 16:53:00,66.0,64.5,29.63,South,180,4.6,0.0,95,0.04,,,0.04,WeatherDisplay:10.37,2013-06-10 20:53:00,
2013-06-10 16:54:00,66.0,64.5,29.63,South,180,1.2,0.0,95,0.04,CLR,,0.04,WeatherDisplay:10.37,2013-06-10 20:54:00,
2013-06-10 16:55:00,65.8,64.4,29.63,ESE,112,2.0,2.0,95,0.04,CLR,,0.04,WeatherDisplay:10.37,2013-06-10 20:55:00,
2013-06-10 16:58:00,65.8,64.4,29.63,SSE,158,1.2,1.2,95,0.04,CLR,,0.04,WeatherDisplay:10.37,2013-06-10 20:58:00,
2013-06-10 16:59:00,65.7,64.2,29.63,West,270,1.2,1.2,95,0.04,CLR,,0.04,WeatherDisplay:10.37,2013-06-10 20:59:00,
2013-06-10 17:00:00,65.7,64.2,29.60,SE,135,0.0,0.0,95,0.04,CLR,,0.04,WeatherDisplay:10.37,2013-06-10 21:00:00,
2013-06-10 17:03:00,65.5,64.0,29.60,SSE,158,1.2,1.2,95,0.04,CLR,,0.04,WeatherDisplay:10.37,2013-06-10 21:03:00,
2013-06-10 17:04:00,65.5,64.0,29.60,ENE,68,2.3,0.0,95,0.04,CLR,,0.04,WeatherDisplay:10.37,2013-06-10 21:04:00,
2013-06-10 17:05:00,65.5,64.0,29.60,SSE,158,1.2,0.0,95,0.04,CLR,,0.04,WeatherDisplay:10.37,2013-06-10 21:05:00,
2013-06-10 17:08:00,65.5,64.0,29.60,SSE,158,0.0,0.0,95,0.04,CLR,,0.04,WeatherDisplay:10.37,2013-06-10 21:08:00,
2013-06-10 17:09:00,65.5,64.0,29.60,SE,135,0.0,0.0,95,0.04,CLR,,0.04,WeatherDisplay:10.37,2013-06-10 21:09:00,
2013-06-10 17:10:00,65.5,64.0,29.60,WSW,248,0.0,0.0,95,0.04,CLR,,0.04,WeatherDisplay:10.37,2013-06-10 21:10:00,
2013-06-10 17:11:00,65.5,64.0,29.60,SSE,158,0.0,0.0,95,0.04,CLR,,0.04,WeatherDisplay:10.37,2013-06-10 21:11:00,
2013-06-10 17:12:00,65.5,64.0,29.60,SE,135,1.2,1.2,95,0.04,CLR,,0.04,WeatherDisplay:10.37,2013-06-10 21:12:00,
2013-06-10 17:13:00,65.5,64.0,29.60,South,180,1.2,0.0,95,0.04,CLR,,0.04,WeatherDisplay:10.37,2013-06-10 21:13:00,
2013-06-10 17:15:00,65.3,63.8,29.60,SSW,202,2.0,2.0,95,0.04,CLR,,0.04,WeatherDisplay:10.37,2013-06-10 21:15:00,
2013-06-10 17:16:00,65.3,63.8,29.60,ESE,112,2.3,2.3,95,0.04,CLR,,0.04,WeatherDisplay:10.37,2013-06-10 21:16:00,
2013-06-10 17:17:00,65.3,63.8,29.60,SE,135,0.0,0.0,95,0.04,CLR,,0.04,WeatherDisplay:10.37,2013-06-10 21:17:00,
2013-06-10 17:18:00,65.3,63.8,29.60,SE,135,3.1,0.0,95,0.04,CLR,,0.04,WeatherDisplay:10.37,2013-06-10 21:18:00,
2013-06-10 17:20:00,65.5,64.0,29.60,SSE,158,0.0,0.0,95,0.04,CLR,,0.04,WeatherDisplay:10.37,2013-06-10 21:20:00,
2013-06-10 17:21:00,65.5,64.0,29.60,SSE,158,0.0,1.2,95,0.04,CLR,,0.04,WeatherDisplay:10.37,2013-06-10 21:21:00,
2013-06-10 17:22:00,65.5,64.0,29.60,ESE,112,1.2,0.0,95,0.04,CLR,,0.04,WeatherDisplay:10.37,2013-06-10 21:22:00,
2013-06-10 17:23:00,65.5,64.0,29.60,ESE,112,0.0,0.0,95,0.04,CLR,,0.04,WeatherDisplay:10.37,2013-06-10 21:23:00,
2013-06-10 17:25:00,65.5,64.3,29.60,WNW,292,2.3,2.3,96,0.04,CLR,,0.04,WeatherDisplay:10.37,2013-06-10 21:25:00,
2013-06-10 17:26:00,65.5,64.3,29.60,SSE,158,0.0,0.9,96,0.04,CLR,,0.04,WeatherDisplay:10.37,2013-06-10 21:26:00,
2013-06-10 17:27:00,65.5,64.3,29.60,ESE,112,0.0,0.0,96,0.04,CLR,,0.04,WeatherDisplay:10.37,2013-06-10 21:27:00,
2013-06-10 17:29:00,65.5,64.3,29.60,NNW,338,0.0,0.0,96,0.04,CLR,,0.04,WeatherDisplay:10.37,2013-06-10 21:29:00,
2013-06-10 17:30:00,65.5,64.3,29.60,SSE,158,4.6,4.6,96,0.04,CLR,,0.04,WeatherDisplay:10.37,2013-06-10 21:30:00,
2013-06-10 17:31:00,65.5,64.3,29.60,SSW,202,2.3,0.0,96,0.04,CLR,,0.04,WeatherDisplay:10.37,2013-06-10 21:31:00,
2013-06-10 17:33:00,65.5,64.3,29.60,ESE,112,1.2,0.0,96,0.04,CLR,,0.04,WeatherDisplay:10.37,2013-06-10 21:33:00,
2013-06-10 17:34:00,65.5,64.3,29.60,SSW,202,0.0,0.0,96,0.04,CLR,,0.04,WeatherDisplay:10.37,2013-06-10 21:34:00,
2013-06-10 17:36:00,65.5,64.3,29.60,North,0,2.3,0.0,96,0.04,CLR,,0.04,WeatherDisplay:10.37,2013-06-10 21:36:00,
2013-06-10 17:37:00,65.5,64.3,29.60,ENE,68,1.2,0.0,96,0.04,CLR,,0.04,WeatherDisplay:10.37,2013-06-10 21:37:00,
2013-06-10 17:38:00,65.5,64.3,29.60,ESE,112,0.0,0.0,96,0.04,CLR,,0.04,WeatherDisplay:10.37,2013-06-10 21:38:00,
2013-06-10 17:39:00,65.5,64.3,29.60,SSE,158,0.0,0.0,96,0.04,CLR,,0.04,WeatherDisplay:10.37,2013-06-10 21:39:00,
2013-06-10 17:41:00,65.3,64.1,29.60,NW,315,0.0,0.0,96,0.04,CLR,,0.04,WeatherDisplay:10.37,2013-06-10 21:41:00,
2013-06-10 17:42:00,65.3,64.1,29.60,South,180,0.0,0.0,96,0.00,CLR,,0.04,WeatherDisplay:10.37,2013-06-10 21:42:00,
2013-06-10 17:43:00,65.3,64.1,29.60,East,90,0.0,0.0,96,0.00,CLR,,0.04,WeatherDisplay:10.37,2013-06-10 21:43:00,
2013-06-10 17:44:00,65.3,64.1,29.60,SE,135,0.0,0.0,96,0.00,CLR,,0.04,WeatherDisplay:10.37,2013-06-10 21:44:00,
2013-06-10 17:46:00,65.5,64.3,29.57,ESE,112,1.2,0.0,96,0.00,CLR,,0.04,WeatherDisplay:10.37,2013-06-10 21:46:00,
2013-06-10 17:47:00,65.3,64.1,29.57,SSE,158,1.2,0.0,96,0.00,CLR,,0.04,WeatherDisplay:10.37,2013-06-10 21:47:00,
2013-06-10 17:48:00,65.3,64.1,29.57,SE,135,3.5,3.5,96,0.00,CLR,,0.04,WeatherDisplay:10.37,2013-06-10 21:48:00,
2013-06-10 17:49:00,65.3,64.1,29.57,SSE,158,3.5,3.5,96,0.00,CLR,,0.04,WeatherDisplay:10.37,2013-06-10 21:49:00,
2013-06-10 17:51:00,65.3,64.1,29.57,WNW,292,0.0,0.0,96,0.00,CLR,,0.04,WeatherDisplay:10.37,2013-06-10 21:51:00,
2013-06-10 17:52:00,65.3,64.1,29.57,SSW,202,3.6,0.0,96,0.00,CLR,,0.04,WeatherDisplay:10.37,2013-06-10 21:52:00,
2013-06-10 17:53:00,65.3,64.1,29.57,NW,315,3.5,0.0,96,0.00,CLR,,0.04,WeatherDisplay:10.37,2013-06-10 21:53:00,
2013-06-10 17:54:00,65.1,64.0,29.57,SSW,202,3.5,3.5,96,0.00,CLR,,0.04,WeatherDisplay:10.37,2013-06-10 21:54:00,
2013-06-10 17:56:00,65.1,64.0,29.57,SSE,158,2.3,2.3,96,0.00,CLR,,0.04,WeatherDisplay:10.37,2013-06-10 21:56:00,
2013-06-10 17:57:00,65.1,64.0,29.57,SSE,158,0.0,0.0,96,0.00,CLR,,0.04,WeatherDisplay:10.37,2013-06-10 21:57:00,
2013-06-10 17:58:00,65.1,64.0,29.57,SSE,158,1.2,0.0,96,0.00,CLR,,0.04,WeatherDisplay:10.37,2013-06-10 21:58:00,
2013-06-10 17:59:00,65.1,64.0,29.57,NNW,338,1.2,0.0,96,0.00,CLR,,0.04,WeatherDisplay:10.37,2013-06-10 21:59:00,
2013-06-10 18:01:00,65.1,64.0,29.57,ESE,112,0.0,0.0,96,0.00,CLR,,0.04,WeatherDisplay:10.37,2013-06-10 22:01:00,
2013-06-10 18:03:00,65.1,64.0,29.57,South,180,0.0,0.0,96,0.00,CLR,,0.04,WeatherDisplay:10.37,2013-06-10 22:03:00,
2013-06-10 18:05:00,65.1,64.0,29.57,ESE,112,0.0,0.0,96,0.00,CLR,,0.04,WeatherDisplay:10.37,2013-06-10 22:05:00,
2013-06-10 18:06:00,65.1,64.0,29.57,ESE,112,0.0,0.0,96,0.00,CLR,,0.04,WeatherDisplay:10.37,2013-06-10 22:06:00,
2013-06-10 18:08:00,65.1,64.0,29.57,NW,315,0.0,0.0,96,0.00,CLR,,0.04,WeatherDisplay:10.37,2013-06-10 22:08:00,
2013-06-10 18:10:00,65.1,64.0,29.57,ESE,112,0.0,0.0,96,0.00,CLR,,0.04,WeatherDisplay:10.37,2013-06-10 22:10:00,
2013-06-10 18:12:00,65.1,64.0,29.57,SSE,158,0.0,0.0,96,0.00,CLR,,0.04,WeatherDisplay:10.37,2013-06-10 22:12:00,
2013-06-10 18:13:00,65.1,64.0,29.57,East,90,0.0,0.0,96,0.00,CLR,,0.04,WeatherDisplay:10.37,2013-06-10 22:13:00,
2013-06-10 18:15:00,65.1,64.0,29.57,SE,135,0.0,0.0,96,0.00,CLR,,0.04,WeatherDisplay:10.37,2013-06-10 22:15:00,
2013-06-10 18:17:00,65.1,64.0,29.57,SSE,158,0.0,0.0,96,0.00,CLR,,0.04,WeatherDisplay:10.37,2013-06-10 22:17:00,
2013-06-10 18:18:00,65.1,64.0,29.57,SE,135,0.0,0.0,96,0.00,CLR,,0.04,WeatherDisplay:10.37,2013-06-10 22:18:00,
2013-06-10 18:19:00,65.1,64.0,29.57,SE,135,0.0,0.0,96,0.00,CLR,,0.04,WeatherDisplay:10.37,2013-06-10 22:19:00,
2013-06-10 18:20:00,65.1,64.0,29.57,ESE,112,0.0,0.0,96,0.00,CLR,,0.04,WeatherDisplay:10.37,2013-06-10 22:20:00,
2013-06-10 18:22:00,65.1,64.0,29.57,ESE,112,0.0,0.0,96,0.00,CLR,,0.04,WeatherDisplay:10.37,2013-06-10 22:22:00,
2013-06-10 18:23:00,65.1,64.0,29.57,SSW,202,0.0,0.0,96,0.00,CLR,,0.04,WeatherDisplay:10.37,2013-06-10 22:23:00,
2013-06-10 18:24:00,65.1,64.0,29.57,SE,135,0.0,0.0,96,0.00,CLR,,0.04,WeatherDisplay:10.37,2013-06-10 22:24:00,
2013-06-10 18:25:00,65.1,64.0,29.57,SSE,158,0.0,0.0,96,0.00,CLR,,0.04,WeatherDisplay:10.37,2013-06-10 22:25:00,
2013-06-10 18:27:00,65.1,64.0,29.57,SSE,158,0.0,0.0,96,0.00,CLR,,0.04,WeatherDisplay:10.37,2013-06-10 22:27:00,
2013-06-10 18:28:00,65.1,64.0,29.57,ESE,112,0.0,0.0,96,0.00,CLR,,0.04,WeatherDisplay:10.37,2013-06-10 22:28:00,
2013-06-10 18:29:00,65.1,64.0,29.57,ESE,112,0.0,0.0,96,0.00,CLR,,0.04,WeatherDisplay:10.37,2013-06-10 22:29:00,
2013-06-10 18:30:00,65.1,64.0,29.57,ESE,112,0.0,0.0,96,0.00,CLR,,0.04,WeatherDisplay:10.37,2013-06-10 22:30:00,
2013-06-10 18:32:00,65.1,64.0,29.57,ESE,112,0.0,0.0,96,0.00,CLR,,0.04,WeatherDisplay:10.37,2013-06-10 22:32:00,
2013-06-10 18:34:00,65.1,64.0,29.57,SW,225,0.0,0.0,96,0.00,CLR,,0.04,WeatherDisplay:10.37,2013-06-10 22:34:00,
2013-06-10 18:35:00,65.1,64.0,29.57,SE,135,0.0,0.0,96,0.00,CLR,,0.04,WeatherDisplay:10.37,2013-06-10 22:35:00,
2013-06-10 18:38:00,65.1,64.0,29.57,NW,315,0.0,0.0,96,0.00,CLR,,0.04,WeatherDisplay:10.37,2013-06-10 22:38:00,
2013-06-10 18:39:00,65.1,64.0,29.57,NW,315,0.0,0.0,96,0.00,CLR,,0.04,WeatherDisplay:10.37,2013-06-10 22:39:00,
2013-06-10 18:40:00,65.1,64.0,29.57,ESE,112,0.0,0.0,96,0.00,CLR,,0.04,WeatherDisplay:10.37,2013-06-10 22:40:00,
2013-06-10 18:43:00,64.9,63.8,29.57,SE,135,0.0,0.0,96,0.00,CLR,,0.04,WeatherDisplay:10.37,2013-06-10 22:43:00,
2013-06-10 18:44:00,64.9,63.8,29.57,SSE,158,0.0,0.0,96,0.00,CLR,,0.04,WeatherDisplay:10.37,2013-06-10 22:44:00,
2013-06-10 18:45:00,64.9,63.8,29.57,SSE,158,0.0,0.0,96,0.00,CLR,,0.04,WeatherDisplay:10.37,2013-06-10 22:45:00,
2013-06-10 18:48:00,64.9,63.8,29.57,South,180,0.0,0.0,96,0.00,CLR,,0.04,WeatherDisplay:10.37,2013-06-10 22:48:00,
2013-06-10 18:49:00,64.9,64.1,29.57,SSE,158,0.0,0.0,97,0.00,CLR,,0.04,WeatherDisplay:10.37,2013-06-10 22:49:00,
2013-06-10 18:50:00,64.9,64.1,29.57,SE,135,0.0,0.0,97,0.00,CLR,,0.04,WeatherDisplay:10.37,2013-06-10 22:50:00,
2013-06-10 18:53:00,64.9,64.1,29.57,SSE,158,0.0,0.0,97,0.00,CLR,,0.04,WeatherDisplay:10.37,2013-06-10 22:53:00,
2013-06-10 18:54:00,64.9,64.1,29.57,ESE,112,0.0,0.0,97,0.00,CLR,,0.04,WeatherDisplay:10.37,2013-06-10 22:54:00,
2013-06-10 18:55:00,64.9,64.1,29.57,SSE,158,0.0,0.0,97,0.00,CLR,,0.04,WeatherDisplay:10.37,2013-06-10 22:55:00,
2013-06-10 18:56:00,64.9,64.1,29.57,South,180,0.0,0.0,97,0.00,CLR,,0.04,WeatherDisplay:10.37,2013-06-10 22:56:00,
2013-06-10 18:58:00,64.9,64.1,29.57,SSE,158,0.0,0.0,97,0.00,CLR,,0.04,WeatherDisplay:10.37,2013-06-10 22:58:00,
2013-06-10 19:00:00,64.9,64.1,29.57,ENE,68,0.0,0.0,97,0.00,CLR,,0.04,WeatherDisplay:10.37,2013-06-10 23:00:00,
2013-06-10 19:01:00,64.9,64.1,29.57,ESE,112,0.0,0.0,97,0.00,CLR,,0.04,WeatherDisplay:10.37,2013-06-10 23:01:00,
2013-06-10 19:02:00,64.9,64.1,29.57,ESE,112,0.0,0.0,97,0.00,CLR,,0.04,WeatherDisplay:10.37,2013-06-10 23:02:00,
2013-06-10 19:03:00,64.9,64.1,29.57,SW,225,0.0,0.0,97,0.00,CLR,,0.04,WeatherDisplay:10.37,2013-06-10 23:03:00,
2013-06-10 19:05:00,64.9,64.1,29.57,ESE,112,0.0,0.0,97,0.00,CLR,,0.04,WeatherDisplay:10.37,2013-06-10 23:05:00,
2013-06-10 19:06:00,64.9,64.1,29.57,SSE,158,0.0,0.0,97,0.00,CLR,,0.04,WeatherDisplay:10.37,2013-06-10 23:06:00,
2013-06-10 19:07:00,64.9,64.1,29.57,ENE,68,0.0,0.0,97,0.00,CLR,,0.04,WeatherDisplay:10.37,2013-06-10 23:07:00,
2013-06-10 19:09:00,64.9,64.1,29.57,West,270,0.0,0.0,97,0.00,CLR,,0.04,WeatherDisplay:10.37,2013-06-10 23:09:00,
2013-06-10 19:10:00,64.9,64.1,29.57,ENE,68,0.0,0.0,97,0.00,CLR,,0.04,WeatherDisplay:10.37,2013-06-10 23:10:00,
2013-06-10 19:11:00,64.9,64.1,29.57,South,180,0.0,0.0,97,0.00,CLR,,0.04,WeatherDisplay:10.37,2013-06-10 23:11:00,
2013-06-10 19:12:00,64.9,64.1,29.57,SSE,158,0.0,0.0,97,0.00,CLR,,0.04,WeatherDisplay:10.37,2013-06-10 23:12:00,
2013-06-10 19:14:00,64.9,64.1,29.54,NNW,338,0.0,0.0,97,0.00,CLR,,0.04,WeatherDisplay:10.37,2013-06-10 23:14:00,
2013-06-10 19:15:00,64.9,64.1,29.54,South,180,1.4,0.0,97,0.00,CLR,,0.04,WeatherDisplay:10.37,2013-06-10 23:15:00,
2013-06-10 19:16:00,64.8,63.9,29.54,ESE,112,1.2,0.0,97,0.00,CLR,,0.04,WeatherDisplay:10.37,2013-06-10 23:16:00,
2013-06-10 19:17:00,64.8,63.9,29.54,South,180,0.0,0.0,97,0.00,CLR,,0.04,WeatherDisplay:10.37,2013-06-10 23:17:00,
2013-06-10 19:19:00,64.8,63.9,29.54,ESE,112,0.0,0.0,97,0.00,CLR,,0.04,WeatherDisplay:10.37,2013-06-10 23:19:00,
2013-06-10 19:20:00,64.9,64.1,29.54,ESE,112,0.0,0.0,97,0.00,CLR,,0.04,WeatherDisplay:10.37,2013-06-10 23:20:00,
2013-06-10 19:22:00,64.9,64.1,29.54,North,0,1.2,0.0,97,0.00,CLR,,0.04,WeatherDisplay:10.37,2013-06-10 23:22:00,
2013-06-10 19:23:00,64.8,63.9,29.54,SE,135,0.0,0.0,97,0.00,CLR,,0.04,WeatherDisplay:10.37,2013-06-10 23:23:00,
2013-06-10 19:25:00,64.9,64.1,29.54,SSE,158,4.6,4.6,97,0.00,CLR,,0.04,WeatherDisplay:10.37,2013-06-10 23:25:00,
2013-06-10 19:27:00,64.8,63.9,29.54,SSE,158,0.0,0.0,97,0.00,CLR,,0.04,WeatherDisplay:10.37,2013-06-10 23:27:00,
2013-06-10 19:28:00,64.8,63.9,29.54,SSE,158,0.0,0.0,97,0.00,CLR,,0.04,WeatherDisplay:10.37,2013-06-10 23:28:00,
2013-06-10 19:30:00,64.8,63.9,29.54,ESE,112,0.0,0.0,97,0.00,CLR,,0.04,WeatherDisplay:10.37,2013-06-10 23:30:00,
2013-06-10 19:32:00,64.8,63.9,29.54,SSW,202,0.0,0.0,97,0.00,CLR,,0.04,WeatherDisplay:10.37,2013-06-10 23:32:00,
2013-06-10 19:33:00,64.8,63.9,29.54,SSE,158,0.0,0.0,97,0.00,CLR,,0.04,WeatherDisplay:10.37,2013-06-10 23:33:00,
2013-06-10 19:35:00,64.8,63.9,29.54,SW,225,0.0,0.0,97,0.00,CLR,,0.04,WeatherDisplay:10.37,2013-06-10 23:35:00,
2013-06-10 19:37:00,64.8,63.9,29.54,SSE,158,0.0,0.0,97,0.00,CLR,,0.04,WeatherDisplay:10.37,2013-06-10 23:37:00,
2013-06-10 19:38:00,64.8,63.9,29.54,SSE,158,0.0,0.0,97,0.00,CLR,,0.04,WeatherDisplay:10.37,2013-06-10 23:38:00,
2013-06-10 19:40:00,64.8,63.9,29.54,ESE,112,1.2,0.0,97,0.00,CLR,,0.04,WeatherDisplay:10.37,2013-06-10 23:40:00,
2013-06-10 19:41:00,64.8,63.9,29.54,NNE,22,0.0,0.0,97,0.00,CLR,,0.04,WeatherDisplay:10.37,2013-06-10 23:41:00,
2013-06-10 19:42:00,64.8,63.9,29.54,South,180,0.0,0.0,97,0.00,CLR,,0.04,WeatherDisplay:10.37,2013-06-10 23:42:00,
2013-06-10 19:43:00,64.8,63.9,29.54,ESE,112,0.0,0.0,97,0.00,CLR,,0.04,WeatherDisplay:10.37,2013-06-10 23:43:00,
2013-06-10 19:45:00,64.8,63.9,29.54,North,0,0.0,0.0,97,0.00,CLR,,0.04,WeatherDisplay:10.37,2013-06-10 23:45:00,
2013-06-10 19:47:00,64.8,63.9,29.54,ENE,68,0.0,0.0,97,0.00,CLR,,0.04,WeatherDisplay:10.37,2013-06-10 23:47:00,
2013-06-10 19:48:00,64.8,63.9,29.54,SSE,158,1.2,0.0,97,0.00,CLR,,0.04,WeatherDisplay:10.37,2013-06-10 23:48:00,
2013-06-10 19:51:00,64.8,63.9,29.54,SSE,158,0.0,0.0,97,0.00,CLR,,0.04,WeatherDisplay:10.37,2013-06-10 23:51:00,
2013-06-10 19:52:00,64.8,63.9,29.54,ESE,112,0.0,0.0,97,0.00,CLR,,0.04,WeatherDisplay:10.37,2013-06-10 23:52:00,
2013-06-10 19:53:00,64.8,63.9,29.54,East,90,0.0,0.0,97,0.00,CLR,,0.04,WeatherDisplay:10.37,2013-06-10 23:53:00,
2013-06-10 19:56:00,64.8,63.9,29.54,South,180,0.0,0.0,97,0.00,CLR,,0.04,WeatherDisplay:10.37,2013-06-10 23:56:00,
2013-06-10 19:57:00,64.8,63.9,29.54,East,90,0.0,0.0,97,0.00,CLR,,0.04,WeatherDisplay:10.37,2013-06-10 23:57:00,
2013-06-10 19:58:00,64.8,63.9,29.54,NE,45,0.0,0.0,97,0.00,CLR,,0.04,WeatherDisplay:10.37,2013-06-10 23:58:00,
2013-06-10 19:59:00,64.8,64.2,29.54,SSE,158,0.0,0.0,98,0.00,CLR,,0.04,WeatherDisplay:10.37,2013-06-10 23:59:00,
2013-06-10 20:02:00,64.8,64.2,29.54,SE,135,0.0,0.0,98,0.00,CLR,,0.04,WeatherDisplay:10.37,2013-06-11 00:02:00,
2013-06-10 20:03:00,64.8,64.2,29.54,SE,135,0.0,0.0,98,0.00,CLR,,0.04,WeatherDisplay:10.37,2013-06-11 00:03:00,
2013-06-10 20:04:00,64.8,64.2,29.54,NNE,22,0.0,0.0,98,0.00,CLR,,0.04,WeatherDisplay:10.37,2013-06-11 00:04:00,
2013-06-10 20:07:00,64.8,64.2,29.54,NNW,338,0.0,0.0,98,0.00,CLR,,0.04,WeatherDisplay:10.37,2013-06-11 00:07:00,
2013-06-10 20:08:00,64.8,64.2,29.54,NNW,338,0.0,0.0,98,0.00,CLR,,0.04,WeatherDisplay:10.37,2013-06-11 00:08:00,
2013-06-10 20:09:00,64.8,64.2,29.54,SE,135,0.0,0.0,98,0.00,CLR,,0.04,WeatherDisplay:10.37,2013-06-11 00:09:00,
2013-06-10 20:12:00,64.8,64.2,29.54,SE,135,0.0,0.0,98,0.00,CLR,,0.04,WeatherDisplay:10.37,2013-06-11 00:12:00,
2013-06-10 20:13:00,64.8,64.2,29.54,SE,135,0.0,0.0,98,0.00,CLR,,0.04,WeatherDisplay:10.37,2013-06-11 00:13:00,
2013-06-10 20:14:00,64.8,64.2,29.54,SE,135,0.0,0.0,98,0.00,CLR,,0.04,WeatherDisplay:10.37,2013-06-11 00:14:00,
2013-06-10 20:15:00,64.8,64.2,29.54,SE,135,0.0,0.0,98,0.00,CLR,,0.04,WeatherDisplay:10.37,2013-06-11 00:15:00,
2013-06-10 20:17:00,64.8,64.2,29.54,SE,135,0.0,0.0,98,0.00,CLR,,0.04,WeatherDisplay:10.37,2013-06-11 00:17:00,
2013-06-10 20:18:00,64.8,64.2,29.54,ESE,112,0.0,0.0,98,0.00,CLR,,0.04,WeatherDisplay:10.37,2013-06-11 00:18:00,
2013-06-10 20:19:00,64.6,64.0,29.54,SSE,158,0.0,0.0,98,0.00,CLR,,0.04,WeatherDisplay:10.37,2013-06-11 00:19:00,
2013-06-10 20:20:00,64.6,64.0,29.54,SSE,158,0.0,0.0,98,0.00,CLR,,0.04,WeatherDisplay:10.37,2013-06-11 00:20:00,
2013-06-10 20:23:00,64.6,64.0,29.54,ESE,112,0.0,0.0,98,0.00,CLR,,0.04,WeatherDisplay:10.37,2013-06-11 00:23:00,
2013-06-10 20:24:00,64.6,64.0,29.54,SE,135,0.0,0.0,98,0.00,CLR,,0.04,WeatherDisplay:10.37,2013-06-11 00:24:00,
2013-06-10 20:25:00,64.6,64.0,29.54,SE,135,0.0,0.0,98,0.00,CLR,,0.04,WeatherDisplay:10.37,2013-06-11 00:25:00,
2013-06-10 20:28:00,64.8,64.2,29.54,SSE,158,0.0,0.0,98,0.00,CLR,,0.04,WeatherDisplay:10.37,2013-06-11 00:28:00,
2013-06-10 20:30:00,64.6,64.0,29.54,ESE,112,0.0,0.0,98,0.00,CLR,,0.04,WeatherDisplay:10.37,2013-06-11 00:30:00,
2013-06-10 20:33:00,64.6,64.0,29.54,South,180,0.0,0.0,98,0.00,CLR,,0.04,WeatherDisplay:10.37,2013-06-11 00:33:00,
2013-06-10 20:35:00,64.8,64.2,29.54,ESE,112,0.0,0.0,98,0.00,CLR,,0.04,WeatherDisplay:10.37,2013-06-11 00:35:00,
2013-06-10 20:36:00,64.8,64.2,29.54,SSW,202,0.0,0.0,98,0.00,CLR,,0.04,WeatherDisplay:10.37,2013-06-11 00:36:00,
2013-06-10 20:38:00,64.8,64.2,29.54,ESE,112,1.2,0.0,98,0.00,CLR,,0.04,WeatherDisplay:10.37,2013-06-11 00:38:00,
2013-06-10 20:40:00,64.6,64.0,29.54,ESE,112,0.0,0.0,98,0.00,CLR,,0.04,WeatherDisplay:10.37,2013-06-11 00:40:00,
2013-06-10 20:42:00,64.6,64.0,29.54,South,180,0.0,0.0,98,0.00,CLR,,0.04,WeatherDisplay:10.37,2013-06-11 00:42:00,
2013-06-10 20:43:00,64.8,64.2,29.54,ESE,112,0.0,0.0,98,0.00,CLR,,0.04,WeatherDisplay:10.37,2013-06-11 00:43:00,
2013-06-10 20:44:00,64.8,64.2,29.54,ESE,112,0.0,0.0,98,0.00,CLR,,0.04,WeatherDisplay:10.37,2013-06-11 00:44:00,
2013-06-10 20:46:00,64.6,64.0,29.51,SSE,158,0.0,0.0,98,0.00,CLR,,0.04,WeatherDisplay:10.37,2013-06-11 00:46:00,
2013-06-10 20:47:00,64.8,64.2,29.51,SE,135,0.0,0.0,98,0.00,CLR,,0.04,WeatherDisplay:10.37,2013-06-11 00:47:00,
2013-06-10 20:48:00,64.8,64.2,29.51,NNE,22,0.0,0.0,98,0.00,CLR,,0.04,WeatherDisplay:10.37,2013-06-11 00:48:00,
2013-06-10 20:49:00,64.8,64.2,29.51,NNE,22,0.0,0.0,98,0.00,CLR,,0.04,WeatherDisplay:10.37,2013-06-11 00:49:00,
2013-06-10 20:51:00,64.8,64.2,29.51,SE,135,0.0,0.0,98,0.00,CLR,,0.04,WeatherDisplay:10.37,2013-06-11 00:51:00,
2013-06-10 20:52:00,64.8,64.2,29.51,SE,135,0.0,0.0,98,0.00,CLR,,0.04,WeatherDisplay:10.37,2013-06-11 00:52:00,
2013-06-10 20:53:00,64.8,64.2,29.51,ESE,112,0.0,0.0,98,0.00,CLR,,0.04,WeatherDisplay:10.37,2013-06-11 00:53:00,
2013-06-10 20:54:00,64.8,64.2,29.51,ESE,112,0.0,0.0,98,0.00,CLR,,0.04,WeatherDisplay:10.37,2013-06-11 00:54:00,
2013-06-10 20:56:00,64.6,64.0,29.51,NNW,338,0.0,0.0,98,0.00,CLR,,0.04,WeatherDisplay:10.37,2013-06-11 00:56:00,
2013-06-10 20:58:00,64.8,64.2,29.51,ESE,112,0.0,0.0,98,0.00,CLR,,0.04,WeatherDisplay:10.37,2013-06-11 00:58:00,
2013-06-10 20:59:00,64.6,64.0,29.51,ESE,112,0.0,0.0,98,0.00,CLR,,0.04,WeatherDisplay:10.37,2013-06-11 00:59:00,
2013-06-10 21:01:00,64.6,64.0,29.51,ESE,112,0.0,0.0,98,0.00,CLR,,0.04,WeatherDisplay:10.37,2013-06-11 01:01:00,
2013-06-10 21:03:00,64.8,64.2,29.51,WNW,292,0.0,0.0,98,0.00,CLR,,0.04,WeatherDisplay:10.37,2013-06-11 01:03:00,
2013-06-10 21:04:00,64.8,64.2,29.51,SSE,158,0.0,0.0,98,0.00,CLR,,0.04,WeatherDisplay:10.37,2013-06-11 01:04:00,
2013-06-10 21:07:00,64.8,64.2,29.51,NNW,338,0.0,0.0,98,0.00,CLR,,0.04,WeatherDisplay:10.37,2013-06-11 01:07:00,
2013-06-10 21:08:00,64.8,64.2,29.51,ENE,68,0.0,0.0,98,0.00,CLR,,0.04,WeatherDisplay:10.37,2013-06-11 01:08:00,
2013-06-10 21:09:00,64.8,64.2,29.51,ENE,68,0.0,0.0,98,0.00,CLR,,0.04,WeatherDisplay:10.37,2013-06-11 01:09:00,
2013-06-10 21:10:00,64.6,64.0,29.51,ENE,68,0.0,0.0,98,0.00,CLR,,0.04,WeatherDisplay:10.37,2013-06-11 01:10:00,
2013-06-10 21:13:00,64.6,64.0,29.51,ESE,112,0.0,0.0,98,0.00,CLR,,0.04,WeatherDisplay:10.37,2013-06-11 01:13:00,
2013-06-10 21:14:00,64.6,64.0,29.51,North,0,0.0,0.0,98,0.00,CLR,,0.04,WeatherDisplay:10.37,2013-06-11 01:14:00,
2013-06-10 21:15:00,64.6,64.0,29.51,SE,135,0.0,0.0,98,0.00,CLR,,0.04,WeatherDisplay:10.37,2013-06-11 01:15:00,
2013-06-10 21:16:00,64.6,64.0,29.51,SE,135,0.0,0.0,98,0.00,CLR,,0.04,WeatherDisplay:10.37,2013-06-11 01:16:00,
2013-06-10 21:18:00,64.6,64.0,29.51,SE,135,0.0,0.0,98,0.00,CLR,,0.04,WeatherDisplay:10.37,2013-06-11 01:18:00,
2013-06-10 21:19:00,64.6,64.0,29.51,SE,135,0.0,0.0,98,0.00,CLR,,0.04,WeatherDisplay:10.37,2013-06-11 01:19:00,
2013-06-10 21:20:00,64.6,64.0,29.51,SSE,158,0.0,0.0,98,0.00,CLR,,0.04,WeatherDisplay:10.37,2013-06-11 01:20:00,
2013-06-10 21:22:00,64.6,64.0,29.51,SE,135,0.0,0.0,98,0.00,CLR,,0.04,WeatherDisplay:10.37,2013-06-11 01:22:00,
2013-06-10 21:23:00,64.6,64.0,29.51,SE,135,0.0,0.0,98,0.00,CLR,,0.04,WeatherDisplay:10.37,2013-06-11 01:23:00,
2013-06-10 21:24:00,64.8,64.2,29.51,SE,135,0.0,0.0,98,0.00,CLR,,0.04,WeatherDisplay:10.37,2013-06-11 01:24:00,
2013-06-10 21:26:00,64.8,64.2,29.51,SSE,158,0.0,0.0,98,0.00,CLR,,0.04,WeatherDisplay:10.37,2013-06-11 01:26:00,
2013-06-10 21:27:00,64.8,64.2,29.51,SE,135,0.0,0.0,98,0.00,CLR,,0.04,WeatherDisplay:10.37,2013-06-11 01:27:00,
2013-06-10 21:28:00,64.8,64.2,29.51,SE,135,0.0,0.0,98,0.00,CLR,,0.04,WeatherDisplay:10.37,2013-06-11 01:28:00,
2013-06-10 21:29:00,64.8,64.2,29.51,SSE,158,0.0,0.0,98,0.00,CLR,,0.04,WeatherDisplay:10.37,2013-06-11 01:29:00,
2013-06-10 21:31:00,64.6,64.0,29.54,East,90,0.0,0.0,98,0.00,CLR,,0.04,WeatherDisplay:10.37,2013-06-11 01:31:00,
2013-06-10 21:32:00,64.6,64.0,29.54,South,180,0.0,0.0,98,0.00,CLR,,0.04,WeatherDisplay:10.37,2013-06-11 01:32:00,
2013-06-10 21:33:00,64.8,64.2,29.54,NNE,22,0.0,0.0,98,0.00,CLR,,0.04,WeatherDisplay:10.37,2013-06-11 01:33:00,
2013-06-10 21:34:00,64.8,64.2,29.54,SSE,158,0.0,0.0,98,0.00,CLR,,0.04,WeatherDisplay:10.37,2013-06-11 01:34:00,
2013-06-10 21:36:00,64.8,64.2,29.54,South,180,0.0,0.0,98,0.00,CLR,,0.04,WeatherDisplay:10.37,2013-06-11 01:36:00,
2013-06-10 21:37:00,64.8,64.2,29.54,ESE,112,0.0,0.0,98,0.00,CLR,,0.04,WeatherDisplay:10.37,2013-06-11 01:37:00,
2013-06-10 21:38:00,64.8,64.2,29.54,ESE,112,0.0,0.0,98,0.00,CLR,,0.04,WeatherDisplay:10.37,2013-06-11 01:38:00,
2013-06-10 21:39:00,64.8,64.2,29.54,ESE,112,0.0,0.0,98,0.00,CLR,,0.04,WeatherDisplay:10.37,2013-06-11 01:39:00,
2013-06-10 21:42:00,64.8,64.2,29.54,SE,135,0.0,0.0,98,0.00,CLR,,0.04,WeatherDisplay:10.37,2013-06-11 01:42:00,
2013-06-10 21:43:00,64.8,64.2,29.54,SSE,158,0.0,0.0,98,0.00,CLR,,0.04,WeatherDisplay:10.37,2013-06-11 01:43:00,
2013-06-10 21:44:00,64.8,64.2,29.54,SSE,158,0.0,0.0,98,0.00,CLR,,0.04,WeatherDisplay:10.37,2013-06-11 01:44:00,
2013-06-10 21:47:00,64.8,64.2,29.51,ESE,112,0.0,0.0,98,0.00,CLR,,0.04,WeatherDisplay:10.37,2013-06-11 01:47:00,
2013-06-10 21:49:00,64.8,64.2,29.51,NE,45,0.0,0.0,98,0.00,CLR,,0.04,WeatherDisplay:10.37,2013-06-11 01:49:00,
2013-06-10 21:50:00,64.8,64.2,29.51,ESE,112,0.0,0.0,98,0.00,CLR,,0.04,WeatherDisplay:10.37,2013-06-11 01:50:00,
2013-06-10 21:52:00,64.8,64.2,29.51,SSE,158,1.2,0.0,98,0.00,CLR,,0.04,WeatherDisplay:10.37,2013-06-11 01:52:00,
2013-06-10 21:53:00,64.8,64.2,29.51,SSE,158,0.0,0.0,98,0.00,CLR,,0.04,WeatherDisplay:10.37,2013-06-11 01:53:00,
2013-06-10 21:54:00,64.8,64.2,29.51,East,90,0.0,0.0,98,0.00,CLR,,0.04,WeatherDisplay:10.37,2013-06-11 01:54:00,
2013-06-10 21:55:00,64.8,64.2,29.51,ENE,68,0.9,0.0,98,0.00,CLR,,0.04,WeatherDisplay:10.37,2013-06-11 01:55:00,
2013-06-10 21:57:00,64.8,64.2,29.51,SSE,158,0.0,0.0,98,0.00,CLR,,0.04,WeatherDisplay:10.37,2013-06-11 01:57:00,
2013-06-10 21:58:00,64.8,64.2,29.51,SSE,158,0.0,0.0,98,0.00,CLR,,0.04,WeatherDisplay:10.37,2013-06-11 01:58:00,
2013-06-10 21:59:00,64.8,64.2,29.51,SSE,158,0.0,0.0,98,0.00,CLR,,0.04,WeatherDisplay:10.37,2013-06-11 01:59:00,
2013-06-10 22:00:00,64.8,64.2,29.51,East,90,0.0,0.0,98,0.00,CLR,,0.04,WeatherDisplay:10.37,2013-06-11 02:00:00,
2013-06-10 22:03:00,64.8,64.2,29.51,SSE,158,0.0,0.0,98,0.00,CLR,,0.04,WeatherDisplay:10.37,2013-06-11 02:03:00,
2013-06-10 22:04:00,64.8,64.2,29.51,ESE,112,0.0,0.0,98,0.00,CLR,,0.04,WeatherDisplay:10.37,2013-06-11 02:04:00,
2013-06-10 22:05:00,64.8,64.2,29.51,ESE,112,0.0,0.0,98,0.00,CLR,,0.04,WeatherDisplay:10.37,2013-06-11 02:05:00,
2013-06-10 22:06:00,64.8,64.2,29.51,ESE,112,0.0,0.0,98,0.00,CLR,,0.04,WeatherDisplay:10.37,2013-06-11 02:06:00,
2013-06-10 22:08:00,64.8,64.2,29.51,SE,135,0.0,0.0,98,0.00,CLR,,0.04,WeatherDisplay:10.37,2013-06-11 02:08:00,
2013-06-10 22:09:00,64.8,64.2,29.51,East,90,0.0,0.0,98,0.00,CLR,,0.04,WeatherDisplay:10.37,2013-06-11 02:09:00,
2013-06-10 22:10:00,64.8,64.2,29.51,ESE,112,0.0,0.0,98,0.00,CLR,,0.04,WeatherDisplay:10.37,2013-06-11 02:10:00,
2013-06-10 22:11:00,64.8,64.2,29.51,ESE,112,0.0,0.0,98,0.00,CLR,,0.04,WeatherDisplay:10.37,2013-06-11 02:11:00,
2013-06-10 22:13:00,64.8,64.2,29.51,ESE,112,0.0,0.0,98,0.00,CLR,,0.04,WeatherDisplay:10.37,2013-06-11 02:13:00,
2013-06-10 22:14:00,64.8,64.2,29.51,ESE,112,0.0,0.0,98,0.00,CLR,,0.04,WeatherDisplay:10.37,2013-06-11 02:14:00,
2013-06-10 22:15:00,64.8,64.2,29.51,ESE,112,0.0,0.0,98,0.00,CLR,,0.04,WeatherDisplay:10.37,2013-06-11 02:15:00,
2013-06-10 22:16:00,64.8,64.2,29.51,North,0,0.0,0.0,98,0.00,CLR,,0.04,WeatherDisplay:10.37,2013-06-11 02:16:00,
2013-06-10 22:18:00,64.8,64.2,29.51,East,90,0.0,0.0,98,0.00,CLR,,0.04,WeatherDisplay:10.37,2013-06-11 02:18:00,
2013-06-10 22:19:00,64.8,64.2,29.51,East,90,0.0,0.0,98,0.00,CLR,,0.04,WeatherDisplay:10.37,2013-06-11 02:19:00,
2013-06-10 22:20:00,64.8,64.2,29.51,East,90,0.0,0.0,98,0.00,CLR,,0.04,WeatherDisplay:10.37,2013-06-11 02:20:00,
2013-06-10 22:21:00,64.8,64.2,29.51,East,90,0.0,0.0,98,0.00,CLR,,0.04,WeatherDisplay:10.37,2013-06-11 02:21:00,
2013-06-10 22:23:00,64.9,64.4,29.51,East,90,0.0,0.0,98,0.00,CLR,,0.04,WeatherDisplay:10.37,2013-06-11 02:23:00,
2013-06-10 22:24:00,64.8,64.2,29.51,East,90,0.0,0.0,98,0.00,CLR,,0.04,WeatherDisplay:10.37,2013-06-11 02:24:00,
2013-06-10 22:25:00,64.9,64.4,29.51,ESE,112,0.0,0.0,98,0.00,CLR,,0.04,WeatherDisplay:10.37,2013-06-11 02:25:00,
2013-06-10 22:27:00,64.9,64.4,29.51,ENE,68,0.0,0.0,98,0.00,CLR,,0.04,WeatherDisplay:10.37,2013-06-11 02:27:00,
2013-06-10 22:28:00,64.9,64.4,29.51,SW,225,0.0,0.0,98,0.00,CLR,,0.04,WeatherDisplay:10.37,2013-06-11 02:28:00,
2013-06-10 22:29:00,64.9,64.4,29.51,SSE,158,0.0,0.0,98,0.00,CLR,,0.04,WeatherDisplay:10.37,2013-06-11 02:29:00,
2013-06-10 22:30:00,64.9,64.4,29.51,SSE,158,0.0,0.0,98,0.00,CLR,,0.04,WeatherDisplay:10.37,2013-06-11 02:30:00,
2013-06-10 22:31:00,64.9,64.4,29.51,ESE,112,0.0,0.0,98,0.00,CLR,,0.04,WeatherDisplay:10.37,2013-06-11 02:31:00,
2013-06-10 22:33:00,64.9,64.4,29.51,NW,315,0.0,0.0,98,0.00,CLR,,0.04,WeatherDisplay:10.37,2013-06-11 02:33:00,
2013-06-10 22:34:00,64.9,64.4,29.51,South,180,0.0,0.0,98,0.00,CLR,,0.04,WeatherDisplay:10.37,2013-06-11 02:34:00,
2013-06-10 22:35:00,64.9,64.4,29.51,SSE,158,1.2,0.0,98,0.00,CLR,,0.04,WeatherDisplay:10.37,2013-06-11 02:35:00,
2013-06-10 22:36:00,64.9,64.4,29.51,East,90,0.0,0.0,98,0.00,CLR,,0.04,WeatherDisplay:10.37,2013-06-11 02:36:00,
2013-06-10 22:38:00,64.9,64.4,29.51,ESE,112,0.0,0.0,98,0.00,CLR,,0.04,WeatherDisplay:10.37,2013-06-11 02:38:00,
2013-06-10 22:39:00,64.9,64.4,29.51,ESE,112,0.0,0.0,98,0.00,CLR,,0.04,WeatherDisplay:10.37,2013-06-11 02:39:00,
2013-06-10 22:40:00,64.9,64.4,29.51,NNE,22,1.2,0.0,98,0.00,CLR,,0.04,WeatherDisplay:10.37,2013-06-11 02:40:00,
2013-06-10 22:41:00,64.9,64.4,29.51,NNW,338,1.2,1.2,98,0.00,CLR,,0.04,WeatherDisplay:10.37,2013-06-11 02:41:00,
2013-06-10 22:43:00,64.9,64.4,29.51,ENE,68,3.5,3.5,98,0.00,CLR,,0.04,WeatherDisplay:10.37,2013-06-11 02:43:00,
2013-06-10 22:44:00,65.1,64.5,29.51,ENE,68,3.5,0.0,98,0.00,CLR,,0.04,WeatherDisplay:10.37,2013-06-11 02:44:00,
2013-06-10 22:45:00,65.1,64.5,29.51,ENE,68,0.0,0.0,98,0.00,CLR,,0.04,WeatherDisplay:10.37,2013-06-11 02:45:00,
2013-06-10 22:47:00,65.1,64.5,29.51,SSE,158,0.0,0.0,98,0.00,CLR,,0.04,WeatherDisplay:10.37,2013-06-11 02:47:00,
2013-06-10 22:48:00,65.1,64.5,29.51,NNW,338,0.0,0.0,98,0.00,CLR,,0.04,WeatherDisplay:10.37,2013-06-11 02:48:00,
2013-06-10 22:49:00,65.1,64.5,29.51,SSE,158,1.2,1.2,98,0.00,CLR,,0.04,WeatherDisplay:10.37,2013-06-11 02:49:00,
2013-06-10 22:51:00,65.1,64.5,29.51,SSE,158,0.0,0.0,98,0.00,CLR,,0.04,WeatherDisplay:10.37,2013-06-11 02:51:00,
2013-06-10 22:52:00,65.1,64.5,29.51,SSE,158,0.0,0.0,98,0.00,CLR,,0.04,WeatherDisplay:10.37,2013-06-11 02:52:00,
2013-06-10 22:53:00,65.1,64.5,29.51,South,180,0.0,0.0,98,0.00,CLR,,0.04,WeatherDisplay:10.37,2013-06-11 02:53:00,
2013-06-10 22:54:00,65.1,64.5,29.51,SE,135,0.0,0.0,98,0.00,CLR,,0.04,WeatherDisplay:10.37,2013-06-11 02:54:00,
2013-06-10 22:57:00,65.1,64.5,29.51,ESE,112,0.0,0.0,98,0.00,CLR,,0.04,WeatherDisplay:10.37,2013-06-11 02:57:00,
2013-06-10 22:58:00,65.1,64.5,29.51,NW,315,0.0,0.0,98,0.00,CLR,,0.04,WeatherDisplay:10.37,2013-06-11 02:58:00,
2013-06-10 22:59:00,65.1,64.5,29.51,WNW,292,2.3,0.0,98,0.00,CLR,,0.04,WeatherDisplay:10.37,2013-06-11 02:59:00,
2013-06-10 23:02:00,65.1,64.5,29.51,ESE,112,0.0,0.0,98,0.00,CLR,,0.04,WeatherDisplay:10.37,2013-06-11 03:02:00,
2013-06-10 23:04:00,65.1,64.5,29.51,SSE,158,0.0,0.0,98,0.00,CLR,,0.04,WeatherDisplay:10.37,2013-06-11 03:04:00,
2013-06-10 23:05:00,65.1,64.5,29.51,SE,135,0.0,0.0,98,0.00,CLR,,0.04,WeatherDisplay:10.37,2013-06-11 03:05:00,
2013-06-10 23:07:00,65.1,64.5,29.51,ESE,112,0.0,0.0,98,0.00,CLR,,0.04,WeatherDisplay:10.37,2013-06-11 03:07:00,
2013-06-10 23:08:00,65.1,64.5,29.51,SE,135,0.0,0.0,98,0.00,CLR,,0.04,WeatherDisplay:10.37,2013-06-11 03:08:00,
2013-06-10 23:09:00,65.1,64.5,29.51,SE,135,0.0,0.0,98,0.00,CLR,,0.04,WeatherDisplay:10.37,2013-06-11 03:09:00,
2013-06-10 23:10:00,65.1,64.5,29.51,SE,135,0.0,0.0,98,0.00,CLR,,0.04,WeatherDisplay:10.37,2013-06-11 03:10:00,
2013-06-10 23:13:00,65.1,64.5,29.51,SSE,158,0.0,0.0,98,0.00,CLR,,0.04,WeatherDisplay:10.37,2013-06-11 03:13:00,
2013-06-10 23:15:00,65.1,64.5,29.51,East,90,0.0,0.0,98,0.00,CLR,,0.04,WeatherDisplay:10.37,2013-06-11 03:15:00,
2013-06-10 23:18:00,65.1,64.5,29.51,SE,135,0.0,0.0,98,0.00,CLR,,0.04,WeatherDisplay:10.37,2013-06-11 03:18:00,
2013-06-10 23:20:00,65.1,64.5,29.51,South,180,0.0,0.0,98,0.00,CLR,,0.04,WeatherDisplay:10.37,2013-06-11 03:20:00,
2013-06-10 23:23:00,65.1,64.5,29.51,SSE,158,0.0,0.0,98,0.00,CLR,,0.04,WeatherDisplay:10.37,2013-06-11 03:23:00,
2013-06-10 23:25:00,65.1,64.5,29.51,East,90,0.0,0.0,98,0.00,CLR,,0.04,WeatherDisplay:10.37,2013-06-11 03:25:00,
2013-06-10 23:26:00,65.1,64.5,29.51,NE,45,0.0,0.0,98,0.00,CLR,,0.04,WeatherDisplay:10.37,2013-06-11 03:26:00,
2013-06-10 23:28:00,64.9,64.4,29.51,SSE,158,0.0,0.0,98,0.00,CLR,,0.04,WeatherDisplay:10.37,2013-06-11 03:28:00,
2013-06-10 23:29:00,64.9,64.4,29.51,SE,135,0.0,0.0,98,0.00,CLR,,0.04,WeatherDisplay:10.37,2013-06-11 03:29:00,
2013-06-10 23:30:00,64.9,64.4,29.48,SE,135,0.0,0.0,98,0.00,CLR,,0.04,WeatherDisplay:10.37,2013-06-11 03:30:00,
2013-06-10 23:31:00,64.9,64.4,29.48,SSE,158,0.0,0.0,98,0.00,CLR,,0.04,WeatherDisplay:10.37,2013-06-11 03:31:00,
2013-06-10 23:33:00,64.9,64.4,29.48,SE,135,0.0,0.0,98,0.00,CLR,,0.04,WeatherDisplay:10.37,2013-06-11 03:33:00,
2013-06-10 23:34:00,64.9,64.4,29.48,SE,135,0.0,0.0,98,0.00,CLR,,0.04,WeatherDisplay:10.37,2013-06-11 03:34:00,
2013-06-10 23:35:00,64.9,64.4,29.48,SE,135,0.0,0.0,98,0.00,CLR,,0.04,WeatherDisplay:10.37,2013-06-11 03:35:00,
2013-06-10 23:37:00,64.9,64.4,29.48,SSE,158,0.0,0.0,98,0.00,CLR,,0.04,WeatherDisplay:10.37,2013-06-11 03:37:00,
2013-06-10 23:38:00,64.9,64.4,29.48,SSE,158,0.0,0.0,98,0.00,CLR,,0.04,WeatherDisplay:10.37,2013-06-11 03:38:00,
2013-06-10 23:39:00,64.9,64.4,29.48,SSE,158,0.0,0.0,98,0.00,CLR,,0.04,WeatherDisplay:10.37,2013-06-11 03:39:00,
2013-06-10 23:40:00,64.9,64.4,29.48,SE,135,0.0,0.0,98,0.00,CLR,,0.04,WeatherDisplay:10.37,2013-06-11 03:40:00,
2013-06-10 23:43:00,64.9,64.4,29.48,East,90,0.0,0.0,98,0.00,CLR,,0.04,WeatherDisplay:10.37,2013-06-11 03:43:00,
2013-06-10 23:44:00,64.9,64.4,29.48,East,90,0.0,0.0,98,0.00,CLR,,0.04,WeatherDisplay:10.37,2013-06-11 03:44:00,
2013-06-10 23:46:00,64.9,64.4,29.48,ESE,112,0.0,0.0,98,0.00,CLR,,0.04,WeatherDisplay:10.37,2013-06-11 03:46:00,
2013-06-10 23:48:00,64.9,64.4,29.48,NNW,338,0.0,0.0,98,0.00,CLR,,0.04,WeatherDisplay:10.37,2013-06-11 03:48:00,
2013-06-10 23:49:00,64.9,64.4,29.48,NNW,338,1.2,0.0,98,0.00,CLR,,0.04,WeatherDisplay:10.37,2013-06-11 03:49:00,
2013-06-10 23:51:00,64.9,64.4,29.48,SSW,202,0.0,0.0,98,0.00,CLR,,0.04,WeatherDisplay:10.37,2013-06-11 03:51:00,
2013-06-10 23:52:00,64.9,64.4,29.48,North,0,0.0,0.0,98,0.00,CLR,,0.04,WeatherDisplay:10.37,2013-06-11 03:52:00,
2013-06-10 23:53:00,64.9,64.4,29.48,NNE,22,0.0,0.0,98,0.00,CLR,,0.04,WeatherDisplay:10.37,2013-06-11 03:53:00,
2013-06-10 23:54:00,64.9,64.4,29.48,NNE,22,0.0,0.0,98,0.00,CLR,,0.04,WeatherDisplay:10.37,2013-06-11 03:54:00,
2013-06-10 23:56:00,64.9,64.4,29.48,NNE,22,0.0,0.0,98,0.00,CLR,,0.04,WeatherDisplay:10.37,2013-06-11 03:56:00,
2013-06-10 23:58:00,64.9,64.4,29.48,North,0,0.0,0.0,98,0.00,CLR,,0.04,WeatherDisplay:10.37,2013-06-11 03:58:00,
2013-06-10 23:59:00,64.9,64.4,29.48,SE,135,0.0,0.0,98,0.00,CLR,,0.04,WeatherDisplay:10.37,2013-06-11 03:59:00,